GFSNE_prec_precacc24_030.txt.gz
Total_Precipitation_Accumulation
0.24 0.21 0.19 0.17 0.14 0.12 0.10 0.10 0.14 0.07 0.01 0.00 0.02 0.05 0.09 0.08 0.05 0.02 0.00 0.00 0.00 0.00 0.00 0.03 0.04 0.08 0.27 0.31 0.36 0.58 0.81 0.90 0.78 0.68 0.56 0.53 0.62 0.68
0.08 0.07 0.06 0.05 0.05 0.05 0.04 0.03 0.03 0.04 0.02 0.00 0.00 0.00 0.00 0.00 0.01 0.00 0.00 0.00 0.00 0.00 0.00 0.00 0.03 0.08 0.07 0.25 0.52 0.57 0.65 0.76 0.84 0.87 0.89 0.68 0.60 0.64
0.01 0.01 0.01 0.01 0.00 0.00 0.01 0.01 0.02 0.02 0.01 0.00 0.00 0.00 0.00 0.00 0.00 0.00 0.00 0.00 0.00 0.00 0.00 0.00 0.00 0.04 0.11 0.11 0.20 0.53 0.78 0.74 0.62 0.64 0.68 0.76 0.79 0.70
0.00 0.00 0.00 0.00 0.00 0.00 0.00 0.00 0.00 0.00 0.00 0.00 0.00 0.00 0.00 0.00 0.00 0.00 0.00 0.00 0.00 0.00 0.00 0.00 0.00 0.01 0.05 0.12 0.22 0.26 0.39 0.71 0.76 0.64 0.59 0.66 0.76 0.89
0.00 0.00 0.00 0.00 0.00 0.00 0.00 0.00 0.00 0.00 0.00 0.00 0.00 0.00 0.00 0.00 0.00 0.00 0.00 0.00 0.00 0.00 0.00 0.00 0.00 0.00 0.02 0.06 0.15 0.33 0.34 0.31 0.47 0.68 0.64 0.59 0.59 0.68
0.00 0.00 0.00 0.00 0.00 0.00 0.00 0.00 0.00 0.00 0.00 0.00 0.00 0.00 0.00 0.00 0.00 0.00 0.00 0.00 0.00 0.00 0.00 0.00 0.00 0.00 0.00 0.01 0.06 0.14 0.29 0.44 0.41 0.39 0.63 0.68 0.60 0.60
0.00 0.00 0.00 0.00 0.00 0.00 0.00 0.00 0.00 0.00 0.01 0.02 0.02 0.01 0.01 0.01 0.01 0.01 0.01 0.00 0.00 0.00 0.00 0.00 0.00 0.00 0.00 0.00 0.01 0.06 0.13 0.23 0.37 0.44 0.41 0.61 0.70 0.57
0.00 0.00 0.00 0.00 0.00 0.00 0.00 0.00 0.00 0.01 0.03 0.04 0.04 0.02 0.02 0.01 0.02 0.03 0.03 0.04 0.03 0.01 0.01 0.01 0.01 0.01 0.00 0.00 0.00 0.02 0.05 0.15 0.25 0.30 0.40 0.42 0.45 0.66
0.00 0.00 0.00 0.00 0.00 0.00 0.00 0.00 0.00 0.01 0.02 0.03 0.06 0.04 0.02 0.01 0.01 0.03 0.04 0.06 0.05 0.02 0.04 0.05 0.02 0.03 0.01 0.00 0.00 0.01 0.02 0.08 0.21 0.25 0.30 0.40 0.39 0.39
0.00 0.00 0.00 0.00 0.00 0.01 0.03 0.05 0.03 0.02 0.02 0.02 0.06 0.04 0.02 0.02 0.04 0.05 0.07 0.09 0.07 0.02 0.03 0.08 0.02 0.03 0.02 0.02 0.02 0.01 0.02 0.04 0.12 0.28 0.30 0.32 0.45 0.44
0.01 0.01 0.03 0.04 0.02 0.03 0.13 0.20 0.10 0.04 0.01 0.02 0.03 0.02 0.02 0.02 0.02 0.13 0.21 0.22 0.15 0.04 0.04 0.09 0.06 0.03 0.02 0.02 0.02 0.02 0.01 0.03 0.08 0.17 0.32 0.33 0.37 0.49
0.03 0.02 0.02 0.02 0.06 0.08 0.24 0.28 0.24 0.05 0.02 0.03 0.02 0.02 0.02 0.04 0.03 0.19 0.24 0.22 0.14 0.12 0.02 0.09 0.08 0.05 0.07 0.02 0.03 0.04 0.03 0.05 0.11 0.19 0.25 0.39 0.40 0.46
0.05 0.03 0.04 0.15 0.16 0.10 0.11 0.19 0.14 0.06 0.05 0.07 0.06 0.05 0.04 0.04 0.03 0.04 0.11 0.23 0.21 0.13 0.01 0.11 0.12 0.06 0.10 0.06 0.05 0.10 0.10 0.10 0.13 0.22 0.33 0.40 0.46 0.47
0.14 0.13 0.16 0.09 0.06 0.04 0.05 0.07 0.07 0.10 0.16 0.16 0.15 0.10 0.11 0.09 0.08 0.07 0.08 0.11 0.11 0.09 0.04 0.16 0.15 0.07 0.10 0.10 0.06 0.08 0.15 0.19 0.19 0.23 0.35 0.52 0.61 0.65
0.19 0.17 0.10 0.07 0.05 0.04 0.05 0.07 0.09 0.16 0.18 0.17 0.13 0.08 0.06 0.05 0.08 0.12 0.12 0.13 0.14 0.08 0.07 0.16 0.17 0.08 0.12 0.14 0.08 0.07 0.13 0.22 0.26 0.24 0.33 0.43 0.47 0.56
0.09 0.09 0.10 0.07 0.04 0.08 0.12 0.13 0.17 0.25 0.24 0.19 0.12 0.08 0.10 0.14 0.16 0.15 0.19 0.21 0.32 0.16 0.08 0.15 0.15 0.17 0.20 0.10 0.06 0.07 0.09 0.16 0.21 0.24 0.27 0.37 0.45 0.44
0.11 0.12 0.07 0.05 0.05 0.06 0.07 0.06 0.07 0.05 0.09 0.10 0.11 0.09 0.08 0.09 0.12 0.17 0.23 0.21 0.31 0.16 0.14 0.18 0.19 0.22 0.21 0.16 0.18 0.08 0.09 0.12 0.18 0.24 0.28 0.35 0.42 0.52
0.12 0.11 0.10 0.10 0.11 0.10 0.09 0.08 0.05 0.06 0.05 0.05 0.05 0.06 0.08 0.12 0.09 0.08 0.13 0.22 0.17 0.18 0.18 0.19 0.28 0.42 0.41 0.25 0.13 0.06 0.12 0.15 0.19 0.28 0.30 0.31 0.38 0.46
0.12 0.13 0.13 0.14 0.12 0.10 0.09 0.09 0.11 0.14 0.10 0.07 0.07 0.11 0.10 0.13 0.20 0.13 0.13 0.22 0.23 0.18 0.24 0.30 0.33 0.38 0.35 0.24 0.23 0.14 0.14 0.14 0.21 0.28 0.34 0.34 0.29 0.41
0.12 0.14 0.14 0.13 0.12 0.07 0.05 0.06 0.06 0.08 0.08 0.09 0.12 0.10 0.09 0.06 0.09 0.11 0.11 0.11 0.12 0.11 0.11 0.16 0.18 0.21 0.27 0.32 0.40 0.26 0.22 0.18 0.22 0.24 0.31 0.37 0.39 0.45
0.12 0.11 0.12 0.11 0.08 0.06 0.06 0.05 0.06 0.07 0.07 0.10 0.14 0.13 0.07 0.06 0.04 0.03 0.04 0.03 0.04 0.06 0.08 0.10 0.11 0.12 0.15 0.23 0.29 0.27 0.28 0.23 0.15 0.19 0.24 0.40 0.35 0.30
0.11 0.10 0.09 0.07 0.07 0.06 0.05 0.03 0.02 0.03 0.03 0.03 0.06 0.07 0.08 0.07 0.06 0.05 0.05 0.05 0.05 0.05 0.07 0.10 0.12 0.09 0.08 0.08 0.12 0.12 0.22 0.30 0.23 0.16 0.17 0.17 0.19 0.24
0.08 0.07 0.05 0.04 0.03 0.03 0.03 0.03 0.02 0.02 0.03 0.03 0.04 0.06 0.09 0.08 0.07 0.06 0.04 0.04 0.05 0.06 0.07 0.09 0.09 0.05 0.04 0.05 0.08 0.08 0.10 0.15 0.20 0.13 0.11 0.14 0.10 0.13

GFSNE_prec_precacc24_033.txt.gz
Total_Precipitation_Accumulation
0.24 0.22 0.20 0.20 0.20 0.16 0.13 0.16 0.21 0.10 0.01 0.00 0.02 0.05 0.11 0.13 0.17 0.18 0.18 0.16 0.11 0.06 0.01 0.00 0.00 0.00 0.02 0.01 0.09 0.47 0.73 0.86 0.78 0.68 0.56 0.52 0.61 0.68
0.08 0.07 0.06 0.05 0.06 0.07 0.08 0.06 0.05 0.04 0.02 0.00 0.00 0.00 0.00 0.01 0.02 0.04 0.08 0.06 0.04 0.03 0.01 0.00 0.00 0.00 0.00 0.00 0.02 0.15 0.54 0.73 0.84 0.87 0.89 0.68 0.60 0.64
0.02 0.02 0.01 0.01 0.00 0.01 0.01 0.02 0.03 0.04 0.02 0.00 0.00 0.00 0.00 0.00 0.00 0.00 0.01 0.01 0.01 0.00 0.00 0.00 0.00 0.00 0.00 0.00 0.01 0.03 0.19 0.57 0.61 0.64 0.68 0.76 0.79 0.70
0.00 0.00 0.00 0.00 0.00 0.00 0.00 0.00 0.00 0.00 0.00 0.00 0.00 0.00 0.00 0.00 0.00 0.00 0.00 0.00 0.00 0.00 0.00 0.00 0.00 0.00 0.00 0.00 0.00 0.00 0.02 0.21 0.58 0.62 0.59 0.66 0.76 0.89
0.00 0.00 0.00 0.00 0.00 0.00 0.00 0.00 0.00 0.00 0.00 0.00 0.00 0.00 0.00 0.00 0.00 0.00 0.00 0.00 0.00 0.00 0.00 0.00 0.00 0.00 0.00 0.00 0.00 0.00 0.00 0.01 0.18 0.53 0.62 0.59 0.59 0.68
0.00 0.00 0.00 0.00 0.00 0.00 0.00 0.00 0.00 0.00 0.00 0.00 0.00 0.00 0.00 0.00 0.00 0.00 0.00 0.00 0.00 0.00 0.00 0.00 0.00 0.00 0.00 0.00 0.00 0.00 0.00 0.00 0.02 0.14 0.49 0.60 0.60 0.60
0.00 0.00 0.00 0.00 0.00 0.00 0.00 0.00 0.00 0.00 0.01 0.02 0.01 0.00 0.00 0.01 0.01 0.01 0.01 0.00 0.00 0.00 0.00 0.00 0.00 0.00 0.00 0.00 0.00 0.00 0.00 0.00 0.00 0.02 0.11 0.39 0.56 0.53
0.00 0.00 0.00 0.00 0.00 0.00 0.00 0.00 0.00 0.01 0.03 0.04 0.03 0.02 0.01 0.01 0.02 0.03 0.03 0.04 0.03 0.01 0.01 0.01 0.01 0.01 0.00 0.00 0.00 0.00 0.00 0.00 0.00 0.00 0.03 0.13 0.27 0.47
0.00 0.00 0.00 0.00 0.00 0.00 0.00 0.00 0.00 0.01 0.02 0.03 0.06 0.04 0.02 0.01 0.01 0.03 0.03 0.05 0.05 0.02 0.04 0.05 0.02 0.03 0.01 0.00 0.00 0.00 0.00 0.00 0.00 0.00 0.00 0.04 0.14 0.24
0.00 0.00 0.00 0.00 0.00 0.01 0.03 0.05 0.03 0.02 0.02 0.03 0.06 0.05 0.03 0.03 0.05 0.06 0.08 0.11 0.09 0.03 0.03 0.09 0.02 0.03 0.02 0.01 0.00 0.00 0.00 0.00 0.00 0.00 0.00 0.01 0.06 0.17
0.00 0.01 0.02 0.02 0.02 0.04 0.12 0.16 0.08 0.03 0.01 0.02 0.03 0.03 0.03 0.03 0.04 0.15 0.22 0.20 0.14 0.03 0.02 0.07 0.05 0.03 0.02 0.01 0.01 0.00 0.00 0.00 0.00 0.00 0.00 0.01 0.03 0.14
0.01 0.01 0.01 0.01 0.08 0.12 0.24 0.24 0.20 0.04 0.02 0.03 0.02 0.01 0.02 0.03 0.03 0.19 0.23 0.23 0.12 0.11 0.01 0.06 0.05 0.04 0.07 0.02 0.01 0.01 0.01 0.01 0.00 0.00 0.00 0.00 0.02 0.08
0.04 0.02 0.03 0.15 0.17 0.10 0.10 0.13 0.11 0.06 0.06 0.06 0.06 0.05 0.04 0.03 0.03 0.06 0.15 0.26 0.24 0.15 0.01 0.11 0.10 0.04 0.09 0.05 0.03 0.04 0.05 0.03 0.02 0.01 0.00 0.01 0.02 0.07
0.12 0.12 0.16 0.09 0.08 0.06 0.04 0.07 0.09 0.10 0.13 0.14 0.15 0.11 0.12 0.10 0.08 0.08 0.09 0.12 0.12 0.12 0.04 0.17 0.19 0.08 0.12 0.12 0.06 0.03 0.05 0.05 0.05 0.03 0.02 0.02 0.07 0.17
0.17 0.14 0.09 0.08 0.05 0.03 0.07 0.11 0.09 0.15 0.19 0.19 0.13 0.08 0.07 0.06 0.08 0.10 0.09 0.11 0.13 0.08 0.05 0.12 0.15 0.05 0.11 0.14 0.07 0.05 0.07 0.09 0.07 0.06 0.05 0.04 0.07 0.16
0.08 0.08 0.11 0.08 0.04 0.09 0.13 0.12 0.18 0.22 0.21 0.19 0.12 0.08 0.11 0.13 0.14 0.12 0.13 0.13 0.24 0.12 0.04 0.05 0.07 0.10 0.17 0.10 0.05 0.06 0.08 0.11 0.09 0.09 0.12 0.15 0.16 0.16
0.11 0.13 0.08 0.05 0.06 0.06 0.07 0.06 0.08 0.05 0.06 0.08 0.09 0.08 0.07 0.08 0.08 0.08 0.14 0.16 0.22 0.10 0.11 0.13 0.09 0.13 0.18 0.15 0.16 0.06 0.06 0.07 0.08 0.12 0.15 0.20 0.23 0.27
0.12 0.12 0.10 0.11 0.11 0.10 0.10 0.06 0.05 0.07 0.07 0.06 0.06 0.05 0.05 0.05 0.04 0.04 0.08 0.17 0.15 0.14 0.16 0.19 0.26 0.39 0.40 0.24 0.13 0.05 0.09 0.12 0.11 0.15 0.17 0.20 0.23 0.29
0.12 0.12 0.14 0.14 0.13 0.10 0.08 0.08 0.10 0.12 0.10 0.07 0.08 0.07 0.07 0.09 0.15 0.11 0.09 0.19 0.21 0.16 0.24 0.32 0.34 0.38 0.37 0.24 0.21 0.13 0.14 0.14 0.20 0.20 0.23 0.24 0.24 0.32
0.11 0.13 0.13 0.14 0.11 0.06 0.04 0.04 0.04 0.06 0.05 0.06 0.09 0.08 0.07 0.07 0.07 0.06 0.09 0.11 0.11 0.09 0.10 0.15 0.16 0.19 0.26 0.30 0.37 0.21 0.20 0.18 0.21 0.19 0.19 0.27 0.31 0.36
0.11 0.11 0.11 0.10 0.08 0.05 0.05 0.04 0.05 0.06 0.06 0.06 0.08 0.09 0.06 0.07 0.04 0.04 0.04 0.03 0.04 0.05 0.07 0.08 0.10 0.12 0.14 0.20 0.26 0.20 0.21 0.19 0.13 0.17 0.19 0.31 0.29 0.25
0.10 0.09 0.08 0.06 0.05 0.04 0.04 0.03 0.02 0.02 0.03 0.03 0.04 0.05 0.07 0.07 0.05 0.06 0.04 0.04 0.04 0.04 0.06 0.08 0.10 0.08 0.08 0.08 0.13 0.10 0.18 0.22 0.16 0.12 0.15 0.17 0.21 0.24
0.07 0.06 0.05 0.03 0.03 0.02 0.02 0.02 0.02 0.02 0.02 0.03 0.03 0.03 0.06 0.05 0.05 0.05 0.04 0.03 0.04 0.05 0.05 0.07 0.06 0.04 0.04 0.05 0.08 0.07 0.09 0.13 0.19 0.11 0.09 0.14 0.12 0.14

GFSNE_prec_precacc24_036.txt.gz
Total_Precipitation_Accumulation
0.24 0.22 0.20 0.20 0.20 0.16 0.15 0.19 0.26 0.12 0.01 0.00 0.02 0.05 0.11 0.13 0.17 0.19 0.23 0.25 0.22 0.22 0.21 0.12 0.04 0.02 0.01 0.01 0.01 0.02 0.08 0.37 0.61 0.63 0.55 0.52 0.61 0.68
0.09 0.08 0.07 0.06 0.06 0.08 0.09 0.07 0.07 0.06 0.03 0.00 0.00 0.00 0.00 0.01 0.02 0.04 0.09 0.11 0.09 0.09 0.12 0.14 0.09 0.04 0.03 0.02 0.01 0.01 0.02 0.11 0.36 0.71 0.83 0.66 0.60 0.63
0.02 0.02 0.01 0.01 0.01 0.01 0.01 0.02 0.04 0.04 0.02 0.00 0.00 0.00 0.00 0.00 0.00 0.00 0.01 0.02 0.02 0.02 0.03 0.04 0.06 0.03 0.01 0.00 0.00 0.00 0.00 0.00 0.05 0.22 0.50 0.71 0.78 0.70
0.00 0.00 0.00 0.00 0.00 0.00 0.00 0.00 0.00 0.00 0.00 0.00 0.00 0.00 0.00 0.00 0.00 0.00 0.00 0.00 0.00 0.00 0.00 0.00 0.01 0.01 0.00 0.00 0.00 0.00 0.00 0.00 0.00 0.02 0.16 0.46 0.69 0.88
0.00 0.00 0.00 0.00 0.00 0.00 0.00 0.00 0.00 0.00 0.00 0.00 0.00 0.00 0.00 0.00 0.00 0.00 0.00 0.00 0.00 0.00 0.00 0.00 0.00 0.00 0.00 0.00 0.00 0.00 0.00 0.00 0.00 0.00 0.01 0.07 0.33 0.60
0.00 0.00 0.00 0.00 0.00 0.00 0.00 0.00 0.00 0.00 0.00 0.00 0.00 0.00 0.00 0.00 0.00 0.00 0.00 0.00 0.00 0.00 0.00 0.00 0.00 0.00 0.00 0.00 0.00 0.00 0.00 0.00 0.00 0.00 0.00 0.00 0.06 0.30
0.00 0.00 0.00 0.00 0.00 0.00 0.01 0.00 0.00 0.00 0.01 0.01 0.01 0.00 0.00 0.00 0.00 0.00 0.00 0.00 0.00 0.00 0.00 0.00 0.00 0.00 0.00 0.00 0.00 0.00 0.00 0.00 0.00 0.00 0.00 0.00 0.00 0.05
0.00 0.00 0.00 0.00 0.00 0.00 0.00 0.00 0.00 0.02 0.03 0.04 0.04 0.02 0.01 0.00 0.01 0.01 0.02 0.02 0.02 0.01 0.01 0.01 0.01 0.01 0.00 0.00 0.00 0.00 0.00 0.00 0.00 0.00 0.00 0.00 0.00 0.01
0.00 0.00 0.00 0.00 0.00 0.00 0.00 0.00 0.00 0.01 0.02 0.04 0.07 0.03 0.01 0.01 0.01 0.03 0.03 0.03 0.03 0.01 0.02 0.04 0.02 0.03 0.01 0.00 0.00 0.00 0.00 0.00 0.00 0.00 0.00 0.00 0.00 0.00
0.00 0.00 0.00 0.00 0.00 0.01 0.03 0.05 0.03 0.02 0.02 0.03 0.07 0.05 0.03 0.03 0.05 0.06 0.09 0.12 0.09 0.03 0.02 0.07 0.02 0.03 0.02 0.01 0.00 0.00 0.00 0.00 0.00 0.00 0.00 0.00 0.00 0.00
0.00 0.01 0.02 0.02 0.02 0.04 0.14 0.15 0.07 0.03 0.01 0.02 0.04 0.04 0.04 0.04 0.05 0.17 0.25 0.22 0.14 0.03 0.02 0.06 0.04 0.03 0.02 0.01 0.01 0.00 0.00 0.00 0.00 0.00 0.00 0.00 0.00 0.00
0.01 0.01 0.01 0.02 0.08 0.13 0.24 0.23 0.17 0.03 0.02 0.03 0.02 0.01 0.02 0.03 0.02 0.16 0.20 0.21 0.12 0.11 0.01 0.06 0.05 0.04 0.07 0.02 0.01 0.01 0.01 0.01 0.00 0.00 0.00 0.00 0.01 0.01
0.04 0.02 0.03 0.16 0.17 0.11 0.11 0.13 0.10 0.07 0.06 0.07 0.06 0.05 0.05 0.05 0.05 0.08 0.18 0.32 0.25 0.15 0.01 0.12 0.10 0.04 0.08 0.05 0.03 0.04 0.05 0.03 0.02 0.01 0.00 0.00 0.01 0.01
0.10 0.11 0.16 0.10 0.07 0.04 0.04 0.09 0.11 0.10 0.12 0.15 0.16 0.13 0.15 0.13 0.11 0.10 0.11 0.13 0.13 0.12 0.04 0.20 0.23 0.07 0.12 0.12 0.06 0.03 0.05 0.05 0.04 0.02 0.01 0.01 0.01 0.01
0.16 0.14 0.10 0.09 0.05 0.03 0.09 0.12 0.10 0.15 0.18 0.19 0.15 0.11 0.10 0.09 0.10 0.12 0.10 0.12 0.13 0.08 0.05 0.13 0.17 0.06 0.11 0.14 0.07 0.05 0.07 0.08 0.05 0.03 0.03 0.02 0.01 0.00
0.08 0.08 0.12 0.08 0.04 0.09 0.13 0.13 0.18 0.20 0.17 0.17 0.12 0.08 0.09 0.11 0.13 0.12 0.13 0.12 0.21 0.09 0.03 0.05 0.07 0.10 0.15 0.08 0.05 0.05 0.07 0.11 0.08 0.04 0.03 0.06 0.07 0.03
0.11 0.13 0.08 0.05 0.06 0.06 0.07 0.07 0.09 0.06 0.07 0.07 0.08 0.07 0.05 0.06 0.07 0.07 0.09 0.10 0.14 0.06 0.07 0.08 0.05 0.09 0.13 0.12 0.16 0.05 0.05 0.06 0.06 0.07 0.05 0.07 0.10 0.13
0.12 0.12 0.10 0.10 0.11 0.10 0.09 0.07 0.05 0.07 0.07 0.07 0.07 0.06 0.05 0.05 0.05 0.04 0.05 0.08 0.07 0.05 0.07 0.13 0.21 0.31 0.29 0.17 0.14 0.05 0.09 0.10 0.08 0.09 0.09 0.11 0.10 0.13
0.11 0.12 0.13 0.13 0.13 0.09 0.07 0.06 0.08 0.11 0.09 0.07 0.09 0.08 0.08 0.08 0.10 0.08 0.07 0.13 0.14 0.12 0.16 0.23 0.28 0.35 0.34 0.22 0.20 0.13 0.13 0.12 0.18 0.15 0.11 0.11 0.12 0.17
0.11 0.12 0.13 0.13 0.11 0.05 0.04 0.04 0.04 0.05 0.04 0.05 0.09 0.08 0.06 0.07 0.07 0.04 0.06 0.09 0.09 0.08 0.08 0.13 0.15 0.17 0.26 0.30 0.37 0.20 0.18 0.16 0.17 0.15 0.12 0.15 0.15 0.18
0.10 0.10 0.11 0.10 0.07 0.04 0.04 0.04 0.05 0.05 0.04 0.03 0.05 0.06 0.06 0.08 0.05 0.05 0.03 0.04 0.04 0.04 0.06 0.07 0.08 0.10 0.12 0.20 0.27 0.19 0.14 0.12 0.10 0.14 0.14 0.21 0.18 0.16
0.09 0.08 0.07 0.06 0.05 0.04 0.03 0.03 0.02 0.02 0.02 0.03 0.03 0.04 0.06 0.07 0.06 0.06 0.04 0.03 0.03 0.03 0.04 0.05 0.06 0.07 0.06 0.08 0.13 0.09 0.14 0.16 0.12 0.08 0.09 0.15 0.19 0.22
0.06 0.05 0.04 0.03 0.02 0.02 0.02 0.02 0.01 0.02 0.02 0.02 0.02 0.03 0.05 0.04 0.04 0.05 0.03 0.03 0.03 0.02 0.03 0.04 0.03 0.03 0.03 0.05 0.08 0.07 0.08 0.10 0.15 0.09 0.06 0.10 0.10 0.12

GFSNE_prec_precacc24_039.txt.gz
Total_Precipitation_Accumulation
0.24 0.23 0.21 0.22 0.20 0.17 0.16 0.21 0.30 0.14 0.01 0.00 0.02 0.05 0.11 0.13 0.17 0.19 0.23 0.25 0.23 0.23 0.26 0.21 0.12 0.06 0.07 0.09 0.06 0.02 0.01 0.01 0.06 0.22 0.42 0.47 0.59 0.67
0.09 0.08 0.07 0.06 0.06 0.08 0.09 0.07 0.08 0.07 0.03 0.00 0.00 0.00 0.00 0.01 0.02 0.04 0.09 0.11 0.09 0.10 0.15 0.21 0.22 0.19 0.15 0.13 0.09 0.04 0.02 0.00 0.01 0.05 0.25 0.47 0.54 0.62
0.02 0.02 0.01 0.01 0.01 0.01 0.01 0.02 0.04 0.04 0.02 0.00 0.00 0.00 0.00 0.00 0.00 0.00 0.01 0.02 0.02 0.02 0.03 0.07 0.14 0.17 0.16 0.11 0.07 0.05 0.03 0.01 0.00 0.00 0.04 0.22 0.53 0.63
0.00 0.00 0.00 0.00 0.00 0.00 0.00 0.00 0.00 0.00 0.00 0.00 0.00 0.00 0.00 0.00 0.00 0.00 0.00 0.00 0.00 0.00 0.00 0.01 0.02 0.05 0.07 0.03 0.02 0.02 0.02 0.02 0.01 0.00 0.00 0.02 0.15 0.57
0.00 0.00 0.00 0.00 0.00 0.00 0.00 0.00 0.00 0.00 0.00 0.00 0.00 0.00 0.00 0.00 0.00 0.00 0.00 0.00 0.00 0.00 0.00 0.00 0.00 0.00 0.01 0.01 0.00 0.00 0.00 0.01 0.00 0.00 0.00 0.00 0.01 0.11
0.00 0.00 0.00 0.00 0.00 0.00 0.00 0.00 0.00 0.00 0.00 0.00 0.00 0.00 0.00 0.00 0.00 0.00 0.00 0.00 0.00 0.00 0.00 0.00 0.00 0.00 0.00 0.00 0.00 0.00 0.00 0.00 0.00 0.00 0.00 0.00 0.00 0.00
0.00 0.00 0.00 0.00 0.00 0.00 0.01 0.00 0.01 0.01 0.01 0.01 0.01 0.00 0.00 0.00 0.00 0.00 0.00 0.00 0.00 0.00 0.00 0.00 0.00 0.00 0.00 0.00 0.00 0.00 0.00 0.00 0.00 0.00 0.00 0.00 0.00 0.00
0.00 0.00 0.00 0.00 0.00 0.00 0.00 0.00 0.01 0.02 0.04 0.04 0.04 0.01 0.01 0.00 0.01 0.01 0.02 0.02 0.02 0.01 0.01 0.01 0.01 0.01 0.00 0.00 0.00 0.00 0.00 0.00 0.00 0.00 0.00 0.00 0.00 0.00
0.00 0.00 0.00 0.00 0.00 0.00 0.00 0.00 0.00 0.01 0.03 0.04 0.07 0.03 0.01 0.01 0.01 0.02 0.03 0.03 0.03 0.01 0.02 0.04 0.02 0.03 0.01 0.00 0.00 0.00 0.00 0.00 0.00 0.00 0.00 0.00 0.00 0.00
0.00 0.00 0.00 0.00 0.00 0.01 0.03 0.05 0.03 0.02 0.02 0.03 0.07 0.05 0.03 0.03 0.05 0.06 0.09 0.12 0.09 0.03 0.02 0.07 0.02 0.03 0.02 0.01 0.00 0.00 0.00 0.00 0.00 0.00 0.00 0.00 0.00 0.00
0.00 0.01 0.02 0.02 0.02 0.05 0.14 0.13 0.06 0.03 0.01 0.02 0.03 0.04 0.04 0.05 0.07 0.19 0.23 0.20 0.14 0.03 0.02 0.06 0.04 0.03 0.02 0.01 0.01 0.00 0.00 0.00 0.00 0.00 0.00 0.00 0.00 0.00
0.01 0.01 0.01 0.02 0.08 0.14 0.25 0.21 0.15 0.03 0.02 0.03 0.02 0.01 0.02 0.03 0.02 0.13 0.16 0.18 0.11 0.10 0.01 0.06 0.05 0.04 0.07 0.02 0.01 0.01 0.01 0.01 0.00 0.00 0.00 0.00 0.00 0.00
0.03 0.02 0.03 0.16 0.18 0.10 0.09 0.10 0.12 0.09 0.06 0.07 0.06 0.05 0.06 0.06 0.06 0.09 0.18 0.29 0.24 0.15 0.01 0.13 0.10 0.03 0.08 0.05 0.03 0.04 0.05 0.03 0.02 0.01 0.00 0.00 0.00 0.01
0.07 0.10 0.16 0.10 0.07 0.04 0.05 0.11 0.12 0.09 0.11 0.15 0.17 0.14 0.16 0.16 0.14 0.14 0.13 0.15 0.13 0.11 0.03 0.21 0.25 0.06 0.11 0.12 0.05 0.03 0.05 0.05 0.04 0.02 0.01 0.01 0.01 0.00
0.13 0.14 0.11 0.09 0.05 0.04 0.09 0.12 0.10 0.15 0.18 0.17 0.14 0.12 0.11 0.11 0.12 0.14 0.14 0.14 0.12 0.07 0.04 0.14 0.19 0.08 0.13 0.15 0.07 0.05 0.07 0.08 0.05 0.03 0.03 0.01 0.01 0.00
0.08 0.08 0.12 0.08 0.04 0.08 0.11 0.11 0.16 0.19 0.16 0.16 0.12 0.09 0.09 0.08 0.11 0.13 0.13 0.11 0.18 0.08 0.03 0.05 0.08 0.10 0.15 0.08 0.05 0.05 0.07 0.11 0.08 0.04 0.02 0.04 0.05 0.02
0.10 0.13 0.08 0.05 0.06 0.07 0.07 0.07 0.09 0.07 0.07 0.08 0.09 0.07 0.05 0.06 0.08 0.07 0.07 0.08 0.11 0.05 0.07 0.08 0.04 0.07 0.09 0.12 0.18 0.05 0.06 0.06 0.06 0.07 0.04 0.03 0.03 0.07
0.11 0.12 0.10 0.10 0.11 0.10 0.09 0.07 0.06 0.07 0.07 0.08 0.08 0.07 0.06 0.06 0.06 0.04 0.04 0.06 0.06 0.05 0.07 0.11 0.16 0.21 0.19 0.12 0.13 0.05 0.08 0.10 0.08 0.08 0.08 0.07 0.03 0.04
0.10 0.12 0.13 0.13 0.13 0.09 0.06 0.06 0.07 0.09 0.07 0.07 0.10 0.08 0.08 0.07 0.07 0.05 0.05 0.08 0.09 0.11 0.15 0.18 0.21 0.28 0.28 0.19 0.18 0.11 0.12 0.12 0.17 0.13 0.10 0.08 0.05 0.07
0.10 0.11 0.12 0.13 0.10 0.04 0.03 0.03 0.03 0.04 0.04 0.05 0.08 0.07 0.06 0.07 0.06 0.04 0.04 0.06 0.06 0.05 0.06 0.06 0.08 0.10 0.18 0.23 0.32 0.16 0.17 0.16 0.17 0.14 0.10 0.09 0.06 0.07
0.08 0.09 0.10 0.09 0.06 0.04 0.03 0.03 0.04 0.05 0.04 0.03 0.04 0.05 0.06 0.08 0.06 0.05 0.03 0.03 0.03 0.03 0.03 0.02 0.02 0.04 0.06 0.14 0.26 0.18 0.12 0.10 0.09 0.13 0.13 0.17 0.12 0.08
0.07 0.06 0.06 0.05 0.04 0.03 0.03 0.02 0.02 0.02 0.02 0.02 0.03 0.04 0.06 0.07 0.06 0.06 0.04 0.03 0.03 0.02 0.03 0.02 0.02 0.02 0.03 0.05 0.12 0.09 0.13 0.13 0.10 0.06 0.07 0.13 0.18 0.19
0.04 0.03 0.02 0.02 0.02 0.01 0.02 0.01 0.01 0.01 0.02 0.02 0.02 0.03 0.04 0.04 0.03 0.04 0.03 0.02 0.02 0.02 0.02 0.02 0.01 0.01 0.02 0.03 0.07 0.06 0.07 0.09 0.13 0.07 0.05 0.06 0.07 0.08

GFSNE_prec_precacc24_042.txt.gz
Total_Precipitation_Accumulation
0.18 0.19 0.19 0.21 0.21 0.17 0.16 0.21 0.31 0.15 0.01 0.00 0.02 0.05 0.11 0.13 0.17 0.19 0.23 0.25 0.23 0.23 0.26 0.21 0.13 0.08 0.14 0.26 0.28 0.20 0.14 0.02 0.00 0.05 0.08 0.15 0.38 0.53
0.09 0.08 0.07 0.06 0.06 0.08 0.09 0.07 0.08 0.09 0.04 0.00 0.00 0.00 0.00 0.01 0.02 0.04 0.09 0.11 0.09 0.10 0.15 0.21 0.23 0.22 0.19 0.20 0.20 0.21 0.15 0.04 0.00 0.00 0.01 0.05 0.21 0.45
0.02 0.02 0.01 0.01 0.01 0.01 0.01 0.02 0.04 0.04 0.02 0.00 0.00 0.00 0.00 0.00 0.00 0.00 0.01 0.02 0.02 0.02 0.03 0.07 0.14 0.18 0.21 0.19 0.16 0.12 0.12 0.09 0.05 0.01 0.00 0.01 0.07 0.28
0.00 0.00 0.00 0.00 0.00 0.00 0.00 0.00 0.00 0.00 0.00 0.00 0.00 0.00 0.00 0.00 0.00 0.00 0.00 0.00 0.00 0.00 0.00 0.01 0.02 0.05 0.09 0.12 0.12 0.11 0.11 0.08 0.05 0.04 0.01 0.00 0.02 0.07
0.00 0.00 0.00 0.00 0.00 0.00 0.00 0.00 0.00 0.00 0.00 0.01 0.00 0.00 0.00 0.00 0.00 0.00 0.00 0.00 0.00 0.00 0.00 0.00 0.00 0.00 0.01 0.02 0.02 0.03 0.02 0.03 0.05 0.03 0.01 0.01 0.01 0.02
0.00 0.00 0.00 0.00 0.00 0.00 0.00 0.00 0.00 0.00 0.01 0.01 0.00 0.00 0.00 0.00 0.00 0.00 0.00 0.00 0.00 0.00 0.00 0.00 0.00 0.00 0.00 0.00 0.00 0.00 0.00 0.01 0.01 0.03 0.02 0.01 0.00 0.00
0.00 0.00 0.00 0.00 0.00 0.01 0.01 0.00 0.01 0.01 0.01 0.02 0.01 0.00 0.00 0.00 0.00 0.00 0.00 0.00 0.00 0.00 0.00 0.00 0.00 0.00 0.00 0.00 0.00 0.00 0.00 0.00 0.00 0.00 0.00 0.00 0.00 0.00
0.00 0.00 0.00 0.00 0.00 0.00 0.00 0.00 0.01 0.02 0.04 0.04 0.04 0.02 0.01 0.00 0.01 0.01 0.02 0.02 0.02 0.01 0.01 0.01 0.01 0.01 0.00 0.00 0.00 0.00 0.00 0.00 0.00 0.00 0.00 0.00 0.00 0.00
0.00 0.00 0.00 0.00 0.00 0.00 0.00 0.00 0.00 0.01 0.03 0.05 0.09 0.03 0.02 0.01 0.02 0.02 0.03 0.03 0.03 0.01 0.02 0.03 0.02 0.03 0.01 0.00 0.00 0.00 0.00 0.00 0.00 0.00 0.00 0.00 0.00 0.00
0.00 0.00 0.00 0.00 0.00 0.01 0.03 0.04 0.03 0.02 0.02 0.03 0.07 0.05 0.03 0.03 0.06 0.07 0.09 0.13 0.09 0.03 0.02 0.07 0.02 0.03 0.02 0.01 0.00 0.00 0.00 0.00 0.00 0.00 0.00 0.00 0.00 0.00
0.00 0.01 0.02 0.02 0.02 0.05 0.16 0.13 0.06 0.02 0.01 0.02 0.04 0.04 0.05 0.05 0.08 0.21 0.25 0.21 0.13 0.03 0.02 0.07 0.04 0.03 0.02 0.01 0.01 0.00 0.00 0.00 0.00 0.00 0.00 0.00 0.00 0.00
0.01 0.01 0.01 0.02 0.09 0.15 0.23 0.17 0.12 0.03 0.02 0.02 0.01 0.01 0.01 0.02 0.02 0.10 0.13 0.16 0.09 0.09 0.01 0.06 0.05 0.04 0.07 0.02 0.01 0.01 0.01 0.01 0.00 0.00 0.00 0.00 0.00 0.00
0.03 0.02 0.03 0.16 0.18 0.10 0.08 0.11 0.15 0.10 0.05 0.05 0.06 0.06 0.08 0.09 0.09 0.11 0.17 0.26 0.20 0.14 0.01 0.13 0.10 0.03 0.08 0.05 0.03 0.04 0.05 0.03 0.02 0.01 0.00 0.00 0.00 0.00
0.06 0.09 0.16 0.10 0.07 0.05 0.05 0.11 0.12 0.08 0.10 0.13 0.15 0.13 0.16 0.17 0.18 0.19 0.17 0.15 0.12 0.10 0.04 0.24 0.27 0.06 0.12 0.12 0.05 0.03 0.05 0.05 0.04 0.02 0.01 0.01 0.00 0.00
0.11 0.13 0.09 0.08 0.05 0.03 0.08 0.11 0.08 0.13 0.16 0.16 0.13 0.11 0.10 0.10 0.10 0.13 0.17 0.19 0.13 0.08 0.07 0.19 0.20 0.08 0.15 0.15 0.07 0.04 0.07 0.08 0.05 0.03 0.03 0.01 0.01 0.00
0.06 0.07 0.12 0.08 0.04 0.08 0.10 0.09 0.15 0.17 0.14 0.15 0.11 0.08 0.07 0.07 0.10 0.13 0.11 0.13 0.16 0.08 0.05 0.06 0.08 0.15 0.17 0.09 0.06 0.06 0.07 0.11 0.08 0.04 0.02 0.04 0.05 0.02
0.08 0.12 0.08 0.05 0.06 0.06 0.06 0.07 0.09 0.06 0.07 0.08 0.09 0.07 0.05 0.06 0.09 0.07 0.05 0.05 0.07 0.06 0.09 0.08 0.04 0.08 0.10 0.13 0.18 0.06 0.06 0.07 0.06 0.07 0.04 0.03 0.03 0.07
0.10 0.11 0.10 0.10 0.10 0.09 0.09 0.07 0.06 0.07 0.06 0.07 0.08 0.07 0.06 0.07 0.07 0.04 0.05 0.05 0.06 0.06 0.07 0.10 0.13 0.14 0.13 0.09 0.11 0.06 0.09 0.10 0.07 0.07 0.07 0.08 0.03 0.04
0.09 0.10 0.12 0.12 0.12 0.08 0.06 0.05 0.06 0.08 0.06 0.06 0.09 0.07 0.07 0.05 0.06 0.04 0.03 0.05 0.06 0.08 0.11 0.14 0.15 0.22 0.24 0.17 0.16 0.09 0.09 0.09 0.14 0.11 0.09 0.08 0.06 0.07
0.07 0.09 0.10 0.12 0.09 0.04 0.02 0.03 0.03 0.04 0.03 0.03 0.06 0.06 0.06 0.08 0.06 0.03 0.03 0.04 0.04 0.03 0.05 0.04 0.05 0.07 0.15 0.19 0.25 0.08 0.09 0.12 0.15 0.14 0.10 0.09 0.06 0.06
0.06 0.07 0.08 0.07 0.05 0.03 0.03 0.02 0.03 0.03 0.03 0.03 0.04 0.05 0.06 0.08 0.06 0.05 0.03 0.03 0.02 0.02 0.03 0.01 0.01 0.02 0.03 0.07 0.18 0.11 0.08 0.08 0.09 0.13 0.12 0.17 0.12 0.08
0.04 0.04 0.03 0.03 0.02 0.02 0.02 0.02 0.01 0.01 0.02 0.02 0.03 0.03 0.05 0.06 0.06 0.06 0.04 0.03 0.03 0.02 0.03 0.02 0.01 0.01 0.03 0.05 0.12 0.07 0.10 0.11 0.09 0.05 0.07 0.14 0.18 0.19
0.01 0.01 0.01 0.01 0.01 0.01 0.01 0.01 0.01 0.01 0.01 0.01 0.02 0.02 0.04 0.03 0.03 0.04 0.03 0.02 0.02 0.01 0.01 0.02 0.01 0.01 0.02 0.02 0.06 0.05 0.04 0.08 0.13 0.06 0.04 0.06 0.07 0.08

GFSNE_prec_precacc24_045.txt.gz
Total_Precipitation_Accumulation
0.07 0.10 0.10 0.14 0.15 0.14 0.15 0.20 0.31 0.17 0.02 0.00 0.02 0.05 0.11 0.13 0.17 0.19 0.23 0.25 0.23 0.23 0.26 0.21 0.13 0.08 0.14 0.27 0.30 0.23 0.20 0.14 0.06 0.03 0.03 0.01 0.01 0.03
0.08 0.07 0.06 0.06 0.06 0.08 0.09 0.07 0.08 0.10 0.04 0.00 0.00 0.00 0.00 0.01 0.02 0.04 0.09 0.11 0.09 0.10 0.15 0.21 0.23 0.22 0.19 0.21 0.23 0.26 0.26 0.24 0.12 0.04 0.00 0.00 0.00 0.01
0.02 0.02 0.01 0.01 0.01 0.01 0.01 0.02 0.04 0.04 0.02 0.00 0.00 0.00 0.00 0.00 0.00 0.00 0.01 0.02 0.02 0.02 0.03 0.07 0.14 0.18 0.21 0.20 0.17 0.18 0.25 0.25 0.16 0.06 0.00 0.00 0.00 0.00
0.00 0.00 0.00 0.00 0.00 0.00 0.00 0.00 0.00 0.00 0.00 0.00 0.00 0.00 0.00 0.00 0.00 0.00 0.00 0.00 0.00 0.00 0.00 0.01 0.02 0.05 0.09 0.12 0.14 0.16 0.21 0.26 0.20 0.10 0.04 0.01 0.00 0.00
0.00 0.00 0.00 0.00 0.00 0.00 0.00 0.00 0.00 0.00 0.00 0.02 0.01 0.00 0.00 0.00 0.00 0.00 0.00 0.00 0.00 0.00 0.00 0.00 0.00 0.00 0.01 0.02 0.02 0.05 0.07 0.12 0.14 0.07 0.03 0.02 0.01 0.00
0.00 0.00 0.00 0.00 0.00 0.00 0.00 0.00 0.00 0.01 0.01 0.01 0.01 0.00 0.00 0.00 0.00 0.00 0.00 0.00 0.00 0.00 0.00 0.00 0.00 0.00 0.00 0.00 0.00 0.00 0.00 0.02 0.04 0.06 0.03 0.01 0.01 0.01
0.00 0.00 0.00 0.00 0.00 0.01 0.01 0.00 0.01 0.01 0.01 0.02 0.01 0.00 0.00 0.00 0.00 0.00 0.01 0.00 0.00 0.00 0.00 0.00 0.00 0.00 0.00 0.00 0.00 0.00 0.01 0.01 0.00 0.01 0.00 0.00 0.01 0.01
0.00 0.00 0.00 0.00 0.00 0.00 0.00 0.00 0.01 0.02 0.04 0.04 0.04 0.03 0.01 0.01 0.01 0.01 0.02 0.03 0.02 0.01 0.01 0.01 0.01 0.01 0.00 0.00 0.00 0.00 0.00 0.00 0.00 0.00 0.00 0.00 0.00 0.00
0.00 0.00 0.00 0.00 0.00 0.00 0.00 0.00 0.00 0.01 0.03 0.08 0.12 0.05 0.03 0.01 0.02 0.03 0.03 0.04 0.03 0.01 0.02 0.03 0.02 0.02 0.01 0.00 0.00 0.00 0.00 0.00 0.00 0.00 0.00 0.00 0.00 0.00
0.00 0.00 0.00 0.00 0.00 0.01 0.04 0.05 0.03 0.02 0.02 0.03 0.09 0.06 0.04 0.04 0.06 0.07 0.10 0.13 0.10 0.03 0.02 0.07 0.02 0.03 0.02 0.01 0.00 0.00 0.00 0.00 0.00 0.00 0.00 0.00 0.00 0.00
0.00 0.01 0.02 0.02 0.02 0.06 0.16 0.12 0.05 0.02 0.01 0.03 0.05 0.06 0.07 0.07 0.10 0.22 0.23 0.21 0.13 0.04 0.02 0.07 0.04 0.04 0.02 0.01 0.01 0.00 0.00 0.00 0.00 0.00 0.00 0.00 0.00 0.00
0.01 0.01 0.01 0.02 0.09 0.15 0.22 0.17 0.11 0.03 0.02 0.02 0.01 0.01 0.02 0.03 0.01 0.07 0.09 0.14 0.09 0.10 0.01 0.06 0.05 0.04 0.07 0.02 0.01 0.01 0.01 0.01 0.00 0.00 0.00 0.00 0.00 0.00
0.03 0.02 0.03 0.16 0.16 0.09 0.09 0.11 0.16 0.09 0.05 0.05 0.05 0.06 0.08 0.11 0.13 0.15 0.19 0.24 0.17 0.12 0.01 0.13 0.11 0.04 0.08 0.05 0.03 0.04 0.05 0.03 0.02 0.01 0.00 0.00 0.00 0.00
0.04 0.07 0.14 0.09 0.06 0.05 0.06 0.12 0.12 0.07 0.09 0.12 0.14 0.13 0.15 0.16 0.18 0.20 0.21 0.18 0.12 0.09 0.05 0.25 0.30 0.09 0.13 0.12 0.05 0.03 0.05 0.05 0.04 0.02 0.01 0.01 0.00 0.00
0.07 0.09 0.08 0.08 0.05 0.03 0.08 0.11 0.08 0.13 0.16 0.15 0.13 0.10 0.10 0.10 0.09 0.12 0.16 0.21 0.13 0.08 0.09 0.22 0.21 0.10 0.16 0.15 0.08 0.05 0.07 0.08 0.04 0.03 0.03 0.01 0.01 0.00
0.04 0.05 0.11 0.08 0.04 0.08 0.10 0.09 0.14 0.16 0.13 0.14 0.11 0.08 0.07 0.07 0.10 0.13 0.10 0.15 0.20 0.12 0.10 0.09 0.08 0.15 0.18 0.09 0.09 0.07 0.08 0.10 0.08 0.05 0.02 0.04 0.05 0.02
0.05 0.10 0.08 0.05 0.06 0.06 0.06 0.07 0.09 0.06 0.06 0.08 0.09 0.07 0.06 0.07 0.10 0.08 0.05 0.05 0.07 0.07 0.10 0.08 0.03 0.06 0.10 0.13 0.18 0.07 0.08 0.08 0.06 0.07 0.04 0.03 0.03 0.07
0.07 0.09 0.08 0.09 0.10 0.09 0.08 0.06 0.06 0.07 0.06 0.06 0.08 0.07 0.06 0.07 0.07 0.05 0.05 0.06 0.06 0.06 0.07 0.10 0.10 0.09 0.10 0.07 0.10 0.06 0.10 0.10 0.07 0.07 0.07 0.08 0.03 0.04
0.06 0.07 0.09 0.11 0.11 0.08 0.06 0.05 0.06 0.07 0.04 0.04 0.07 0.06 0.07 0.05 0.06 0.04 0.03 0.04 0.05 0.06 0.09 0.11 0.11 0.18 0.22 0.16 0.16 0.08 0.08 0.09 0.13 0.10 0.08 0.08 0.06 0.07
0.05 0.07 0.08 0.09 0.07 0.03 0.02 0.02 0.02 0.04 0.03 0.03 0.05 0.05 0.06 0.08 0.07 0.03 0.03 0.04 0.03 0.02 0.04 0.03 0.03 0.06 0.13 0.18 0.24 0.07 0.07 0.09 0.11 0.11 0.09 0.09 0.06 0.06
0.03 0.04 0.05 0.05 0.02 0.01 0.02 0.02 0.02 0.03 0.03 0.02 0.03 0.04 0.05 0.07 0.05 0.05 0.03 0.03 0.02 0.02 0.03 0.01 0.00 0.01 0.03 0.07 0.17 0.09 0.04 0.03 0.04 0.11 0.12 0.17 0.12 0.08
0.02 0.02 0.01 0.01 0.01 0.01 0.01 0.01 0.01 0.01 0.01 0.02 0.02 0.03 0.04 0.05 0.05 0.06 0.04 0.03 0.03 0.02 0.02 0.02 0.01 0.02 0.03 0.06 0.12 0.07 0.06 0.05 0.05 0.05 0.06 0.14 0.18 0.19
0.00 0.00 0.00 0.00 0.00 0.00 0.01 0.01 0.01 0.01 0.01 0.01 0.01 0.02 0.04 0.03 0.02 0.04 0.03 0.02 0.02 0.01 0.01 0.02 0.01 0.01 0.02 0.02 0.07 0.05 0.03 0.06 0.11 0.06 0.04 0.05 0.07 0.08

GFSNE_prec_precacc24_048.txt.gz
Total_Precipitation_Accumulation
0.09 0.10 0.08 0.10 0.10 0.09 0.11 0.17 0.29 0.17 0.02 0.00 0.02 0.05 0.11 0.13 0.17 0.19 0.23 0.25 0.23 0.23 0.26 0.21 0.13 0.08 0.14 0.27 0.30 0.23 0.21 0.16 0.09 0.05 0.08 0.11 0.10 0.06
0.08 0.06 0.05 0.04 0.05 0.07 0.08 0.07 0.09 0.11 0.04 0.00 0.00 0.00 0.00 0.01 0.02 0.04 0.09 0.11 0.09 0.10 0.15 0.21 0.23 0.22 0.19 0.21 0.23 0.26 0.28 0.27 0.17 0.11 0.07 0.04 0.05 0.09
0.01 0.01 0.01 0.01 0.01 0.01 0.01 0.02 0.04 0.04 0.02 0.00 0.00 0.00 0.00 0.00 0.00 0.00 0.01 0.02 0.02 0.02 0.03 0.07 0.14 0.18 0.21 0.20 0.17 0.18 0.26 0.30 0.24 0.13 0.10 0.10 0.04 0.01
0.00 0.00 0.00 0.00 0.00 0.00 0.00 0.00 0.00 0.00 0.00 0.00 0.00 0.00 0.00 0.00 0.00 0.00 0.00 0.00 0.00 0.00 0.00 0.01 0.02 0.05 0.09 0.12 0.14 0.16 0.21 0.28 0.32 0.21 0.08 0.07 0.05 0.00
0.00 0.00 0.00 0.00 0.00 0.00 0.00 0.00 0.00 0.00 0.01 0.02 0.01 0.00 0.00 0.00 0.00 0.00 0.00 0.00 0.00 0.00 0.00 0.00 0.00 0.00 0.01 0.02 0.03 0.05 0.07 0.12 0.21 0.25 0.18 0.07 0.04 0.01
0.00 0.00 0.00 0.00 0.00 0.00 0.00 0.00 0.01 0.01 0.01 0.02 0.01 0.00 0.00 0.00 0.00 0.00 0.00 0.00 0.00 0.00 0.00 0.00 0.00 0.00 0.00 0.00 0.00 0.00 0.01 0.02 0.06 0.15 0.19 0.16 0.07 0.03
0.00 0.00 0.00 0.00 0.00 0.01 0.01 0.00 0.01 0.02 0.01 0.01 0.01 0.01 0.01 0.00 0.01 0.01 0.01 0.01 0.00 0.00 0.00 0.00 0.00 0.00 0.00 0.00 0.00 0.00 0.01 0.01 0.01 0.03 0.07 0.08 0.11 0.09
0.00 0.00 0.00 0.00 0.00 0.00 0.00 0.00 0.01 0.02 0.04 0.05 0.04 0.03 0.02 0.01 0.02 0.02 0.03 0.03 0.03 0.01 0.02 0.02 0.01 0.01 0.00 0.00 0.00 0.00 0.00 0.00 0.01 0.01 0.01 0.03 0.04 0.04
0.00 0.00 0.00 0.00 0.00 0.00 0.00 0.00 0.00 0.01 0.04 0.10 0.14 0.06 0.04 0.03 0.03 0.04 0.03 0.05 0.04 0.02 0.04 0.05 0.03 0.02 0.01 0.00 0.00 0.00 0.00 0.00 0.00 0.00 0.00 0.00 0.01 0.00
0.00 0.00 0.00 0.00 0.00 0.01 0.04 0.06 0.03 0.02 0.02 0.03 0.10 0.08 0.06 0.05 0.09 0.10 0.11 0.14 0.10 0.03 0.03 0.08 0.02 0.02 0.02 0.01 0.00 0.00 0.00 0.00 0.00 0.00 0.00 0.00 0.00 0.00
0.00 0.01 0.01 0.02 0.02 0.06 0.16 0.11 0.04 0.02 0.01 0.02 0.05 0.06 0.07 0.08 0.12 0.25 0.25 0.23 0.14 0.04 0.04 0.09 0.04 0.04 0.02 0.01 0.01 0.00 0.00 0.00 0.00 0.00 0.00 0.00 0.00 0.00
0.01 0.01 0.01 0.02 0.08 0.15 0.18 0.15 0.11 0.04 0.02 0.02 0.01 0.01 0.02 0.03 0.03 0.09 0.09 0.13 0.09 0.10 0.04 0.09 0.05 0.05 0.08 0.03 0.01 0.01 0.01 0.00 0.00 0.00 0.00 0.00 0.00 0.00
0.02 0.01 0.02 0.13 0.16 0.08 0.08 0.11 0.17 0.10 0.05 0.05 0.05 0.06 0.08 0.10 0.13 0.17 0.22 0.28 0.19 0.12 0.01 0.11 0.10 0.06 0.08 0.09 0.06 0.05 0.05 0.04 0.02 0.01 0.00 0.00 0.00 0.00
0.03 0.04 0.10 0.08 0.06 0.05 0.05 0.12 0.12 0.07 0.08 0.11 0.13 0.12 0.14 0.16 0.17 0.19 0.20 0.20 0.16 0.11 0.06 0.20 0.28 0.10 0.15 0.15 0.10 0.06 0.05 0.05 0.04 0.02 0.02 0.01 0.00 0.00
0.05 0.07 0.06 0.08 0.05 0.03 0.08 0.11 0.08 0.12 0.15 0.15 0.13 0.10 0.09 0.10 0.09 0.11 0.15 0.22 0.16 0.09 0.10 0.20 0.19 0.11 0.16 0.17 0.11 0.07 0.06 0.07 0.05 0.03 0.01 0.01 0.01 0.00
0.02 0.02 0.09 0.07 0.04 0.07 0.09 0.08 0.13 0.15 0.12 0.14 0.11 0.08 0.07 0.07 0.11 0.14 0.10 0.14 0.26 0.18 0.11 0.10 0.09 0.16 0.17 0.12 0.11 0.10 0.06 0.08 0.07 0.05 0.02 0.02 0.05 0.03
0.03 0.07 0.06 0.03 0.05 0.06 0.06 0.07 0.09 0.06 0.06 0.07 0.08 0.07 0.05 0.07 0.11 0.09 0.06 0.05 0.08 0.09 0.14 0.11 0.04 0.06 0.13 0.17 0.21 0.10 0.09 0.09 0.08 0.08 0.04 0.04 0.04 0.07
0.05 0.06 0.05 0.07 0.08 0.08 0.08 0.06 0.05 0.06 0.05 0.06 0.07 0.06 0.05 0.06 0.06 0.04 0.05 0.06 0.06 0.06 0.07 0.09 0.10 0.13 0.12 0.07 0.11 0.11 0.11 0.12 0.06 0.07 0.07 0.08 0.03 0.04
0.03 0.05 0.06 0.08 0.09 0.07 0.05 0.04 0.05 0.07 0.04 0.04 0.07 0.06 0.07 0.05 0.06 0.03 0.02 0.03 0.05 0.06 0.08 0.10 0.10 0.16 0.21 0.18 0.13 0.08 0.08 0.07 0.10 0.08 0.08 0.07 0.06 0.06
0.03 0.04 0.06 0.06 0.05 0.02 0.01 0.02 0.02 0.03 0.02 0.02 0.04 0.05 0.05 0.07 0.07 0.03 0.02 0.03 0.02 0.01 0.04 0.03 0.02 0.04 0.08 0.12 0.20 0.07 0.07 0.08 0.07 0.07 0.07 0.08 0.06 0.05
0.02 0.03 0.04 0.03 0.01 0.00 0.01 0.01 0.02 0.02 0.02 0.02 0.03 0.04 0.04 0.07 0.05 0.05 0.03 0.03 0.02 0.02 0.02 0.01 0.00 0.00 0.02 0.06 0.17 0.10 0.04 0.02 0.03 0.06 0.08 0.14 0.10 0.07
0.01 0.01 0.01 0.00 0.00 0.00 0.01 0.01 0.00 0.01 0.01 0.01 0.01 0.02 0.03 0.05 0.05 0.05 0.03 0.02 0.02 0.01 0.02 0.02 0.01 0.02 0.04 0.06 0.13 0.06 0.05 0.03 0.03 0.03 0.05 0.12 0.18 0.20
0.00 0.01 0.00 0.00 0.00 0.00 0.01 0.00 0.00 0.00 0.00 0.00 0.01 0.01 0.03 0.02 0.02 0.03 0.02 0.01 0.01 0.01 0.01 0.02 0.01 0.02 0.03 0.02 0.07 0.07 0.02 0.04 0.09 0.05 0.04 0.05 0.07 0.08

GFSNE_prec_precacc24_051.txt.gz
Total_Precipitation_Accumulation
0.10 0.11 0.08 0.09 0.09 0.07 0.09 0.15 0.24 0.15 0.01 0.00 0.01 0.04 0.10 0.13 0.17 0.19 0.23 0.25 0.23 0.23 0.26 0.21 0.13 0.08 0.14 0.27 0.30 0.23 0.21 0.16 0.09 0.06 0.08 0.12 0.14 0.14
0.06 0.04 0.03 0.03 0.04 0.06 0.07 0.06 0.07 0.08 0.03 0.00 0.00 0.00 0.00 0.01 0.02 0.04 0.09 0.11 0.09 0.10 0.15 0.21 0.23 0.22 0.19 0.21 0.23 0.26 0.28 0.27 0.17 0.11 0.08 0.05 0.08 0.13
0.01 0.01 0.01 0.01 0.00 0.00 0.01 0.02 0.04 0.04 0.02 0.00 0.00 0.00 0.00 0.00 0.00 0.00 0.01 0.02 0.02 0.02 0.04 0.08 0.14 0.18 0.21 0.20 0.17 0.18 0.26 0.30 0.24 0.13 0.12 0.12 0.08 0.07
0.00 0.00 0.00 0.00 0.00 0.00 0.00 0.00 0.00 0.00 0.01 0.00 0.00 0.00 0.00 0.00 0.00 0.00 0.00 0.00 0.00 0.00 0.00 0.01 0.02 0.05 0.09 0.12 0.14 0.16 0.21 0.28 0.32 0.22 0.10 0.09 0.12 0.12
0.00 0.00 0.00 0.00 0.00 0.00 0.00 0.00 0.00 0.00 0.01 0.02 0.01 0.00 0.00 0.00 0.00 0.00 0.00 0.00 0.00 0.00 0.00 0.00 0.00 0.00 0.01 0.02 0.03 0.05 0.07 0.12 0.21 0.26 0.23 0.13 0.10 0.06
0.00 0.00 0.00 0.00 0.00 0.00 0.00 0.00 0.01 0.01 0.01 0.02 0.01 0.00 0.00 0.00 0.00 0.00 0.00 0.00 0.00 0.00 0.00 0.00 0.00 0.00 0.00 0.00 0.00 0.00 0.01 0.02 0.06 0.15 0.21 0.27 0.18 0.16
0.00 0.00 0.00 0.00 0.00 0.01 0.01 0.00 0.01 0.02 0.01 0.01 0.01 0.01 0.01 0.01 0.01 0.01 0.01 0.01 0.01 0.00 0.00 0.00 0.00 0.00 0.00 0.00 0.00 0.00 0.01 0.01 0.01 0.03 0.08 0.12 0.28 0.25
0.00 0.00 0.00 0.00 0.00 0.00 0.00 0.00 0.01 0.02 0.04 0.05 0.05 0.04 0.02 0.02 0.03 0.04 0.04 0.04 0.04 0.03 0.04 0.03 0.02 0.02 0.01 0.01 0.01 0.00 0.00 0.00 0.01 0.01 0.01 0.04 0.10 0.22
0.00 0.00 0.00 0.00 0.00 0.00 0.00 0.00 0.00 0.01 0.06 0.12 0.16 0.08 0.07 0.06 0.06 0.06 0.05 0.06 0.05 0.04 0.06 0.06 0.04 0.03 0.01 0.00 0.00 0.00 0.00 0.00 0.00 0.01 0.01 0.01 0.04 0.09
0.00 0.00 0.00 0.00 0.00 0.01 0.03 0.06 0.03 0.01 0.02 0.03 0.10 0.08 0.06 0.05 0.07 0.10 0.12 0.16 0.11 0.03 0.04 0.08 0.03 0.03 0.02 0.01 0.00 0.00 0.00 0.00 0.00 0.00 0.00 0.00 0.01 0.03
0.00 0.00 0.01 0.01 0.01 0.05 0.14 0.09 0.03 0.01 0.01 0.02 0.05 0.06 0.06 0.08 0.12 0.27 0.25 0.23 0.15 0.06 0.06 0.11 0.06 0.04 0.02 0.02 0.02 0.00 0.00 0.00 0.00 0.00 0.00 0.00 0.00 0.00
0.00 0.00 0.00 0.01 0.07 0.13 0.16 0.13 0.09 0.03 0.02 0.02 0.01 0.01 0.02 0.04 0.04 0.11 0.14 0.20 0.12 0.12 0.05 0.11 0.06 0.06 0.07 0.04 0.02 0.02 0.01 0.00 0.00 0.00 0.00 0.00 0.00 0.00
0.01 0.00 0.00 0.06 0.12 0.07 0.08 0.11 0.17 0.09 0.05 0.05 0.05 0.06 0.08 0.10 0.13 0.17 0.22 0.28 0.19 0.14 0.03 0.09 0.06 0.06 0.08 0.13 0.10 0.06 0.06 0.04 0.01 0.00 0.00 0.00 0.00 0.00
0.02 0.02 0.06 0.06 0.06 0.05 0.05 0.11 0.11 0.07 0.08 0.10 0.11 0.10 0.12 0.13 0.15 0.17 0.17 0.17 0.15 0.11 0.07 0.18 0.25 0.10 0.16 0.16 0.12 0.08 0.07 0.06 0.06 0.04 0.02 0.01 0.00 0.00
0.02 0.04 0.05 0.07 0.04 0.03 0.07 0.10 0.07 0.10 0.13 0.13 0.12 0.09 0.08 0.09 0.09 0.12 0.15 0.21 0.17 0.14 0.10 0.18 0.15 0.10 0.14 0.16 0.17 0.12 0.07 0.04 0.03 0.03 0.01 0.02 0.02 0.00
0.01 0.01 0.06 0.05 0.02 0.05 0.07 0.07 0.11 0.12 0.10 0.12 0.10 0.07 0.06 0.06 0.09 0.14 0.09 0.12 0.28 0.33 0.12 0.10 0.09 0.16 0.16 0.11 0.12 0.12 0.08 0.07 0.05 0.06 0.02 0.01 0.04 0.03
0.01 0.04 0.04 0.01 0.02 0.03 0.04 0.05 0.07 0.05 0.04 0.06 0.07 0.06 0.04 0.05 0.08 0.08 0.07 0.05 0.08 0.11 0.19 0.14 0.07 0.07 0.13 0.18 0.26 0.13 0.11 0.10 0.09 0.06 0.04 0.04 0.03 0.06
0.02 0.04 0.03 0.04 0.05 0.06 0.06 0.04 0.04 0.05 0.04 0.05 0.06 0.05 0.05 0.05 0.06 0.03 0.04 0.05 0.06 0.05 0.06 0.05 0.08 0.21 0.16 0.07 0.13 0.20 0.17 0.17 0.06 0.03 0.06 0.09 0.05 0.03
0.02 0.03 0.04 0.05 0.06 0.05 0.04 0.03 0.04 0.05 0.03 0.03 0.06 0.05 0.06 0.05 0.06 0.03 0.02 0.01 0.02 0.04 0.06 0.06 0.05 0.12 0.26 0.31 0.08 0.07 0.13 0.08 0.06 0.03 0.06 0.07 0.07 0.04
0.02 0.03 0.04 0.04 0.03 0.01 0.01 0.01 0.01 0.02 0.01 0.01 0.03 0.04 0.04 0.06 0.06 0.03 0.02 0.03 0.02 0.00 0.02 0.02 0.02 0.02 0.03 0.07 0.09 0.04 0.05 0.07 0.05 0.03 0.04 0.07 0.05 0.04
0.01 0.02 0.03 0.02 0.01 0.00 0.00 0.00 0.01 0.01 0.01 0.01 0.01 0.02 0.03 0.06 0.04 0.04 0.02 0.02 0.01 0.01 0.02 0.01 0.00 0.00 0.02 0.04 0.13 0.10 0.04 0.01 0.02 0.03 0.03 0.11 0.09 0.06
0.01 0.01 0.01 0.00 0.00 0.00 0.01 0.00 0.00 0.00 0.00 0.00 0.00 0.01 0.02 0.03 0.04 0.04 0.02 0.02 0.01 0.00 0.02 0.02 0.02 0.03 0.06 0.06 0.17 0.09 0.04 0.02 0.01 0.02 0.03 0.09 0.14 0.17
0.02 0.02 0.01 0.01 0.01 0.00 0.01 0.00 0.00 0.00 0.00 0.00 0.00 0.00 0.01 0.01 0.01 0.02 0.01 0.01 0.01 0.00 0.00 0.02 0.01 0.03 0.06 0.02 0.08 0.12 0.02 0.02 0.05 0.03 0.02 0.03 0.05 0.07

GFSNE_prec_precacc24_054.txt.gz
Total_Precipitation_Accumulation
0.09 0.10 0.07 0.07 0.08 0.05 0.07 0.12 0.19 0.11 0.01 0.00 0.00 0.00 0.01 0.05 0.12 0.17 0.22 0.25 0.23 0.23 0.26 0.21 0.13 0.08 0.14 0.27 0.30 0.23 0.21 0.16 0.09 0.06 0.08 0.12 0.14 0.14
0.05 0.03 0.03 0.02 0.01 0.02 0.05 0.04 0.06 0.07 0.02 0.00 0.00 0.00 0.00 0.00 0.01 0.04 0.09 0.11 0.09 0.10 0.15 0.21 0.23 0.22 0.19 0.21 0.23 0.26 0.28 0.27 0.17 0.11 0.08 0.05 0.09 0.13
0.01 0.01 0.01 0.01 0.00 0.00 0.00 0.01 0.02 0.02 0.01 0.00 0.00 0.00 0.00 0.00 0.00 0.00 0.01 0.02 0.02 0.02 0.04 0.08 0.14 0.19 0.22 0.20 0.17 0.18 0.26 0.30 0.24 0.13 0.12 0.12 0.08 0.08
0.00 0.00 0.00 0.00 0.00 0.00 0.00 0.00 0.00 0.00 0.00 0.00 0.00 0.00 0.00 0.00 0.00 0.00 0.00 0.00 0.00 0.00 0.00 0.01 0.02 0.05 0.09 0.12 0.14 0.16 0.21 0.28 0.32 0.22 0.10 0.09 0.12 0.12
0.00 0.00 0.00 0.00 0.00 0.00 0.00 0.00 0.00 0.00 0.01 0.02 0.01 0.00 0.00 0.00 0.00 0.00 0.00 0.00 0.00 0.00 0.00 0.00 0.01 0.01 0.02 0.02 0.03 0.05 0.07 0.12 0.21 0.26 0.23 0.13 0.10 0.06
0.01 0.00 0.00 0.00 0.00 0.00 0.00 0.00 0.01 0.01 0.01 0.02 0.01 0.00 0.00 0.00 0.00 0.01 0.01 0.00 0.00 0.00 0.00 0.00 0.00 0.00 0.00 0.00 0.00 0.00 0.01 0.02 0.06 0.15 0.21 0.27 0.19 0.19
0.00 0.00 0.00 0.00 0.00 0.01 0.01 0.00 0.01 0.02 0.01 0.01 0.01 0.01 0.01 0.01 0.02 0.01 0.02 0.02 0.01 0.01 0.01 0.00 0.00 0.01 0.01 0.01 0.01 0.00 0.01 0.01 0.01 0.03 0.08 0.12 0.28 0.31
0.00 0.00 0.00 0.00 0.00 0.00 0.00 0.00 0.01 0.02 0.04 0.05 0.05 0.05 0.03 0.03 0.04 0.07 0.06 0.05 0.04 0.03 0.05 0.03 0.03 0.02 0.01 0.01 0.03 0.00 0.00 0.00 0.01 0.01 0.02 0.05 0.11 0.26
0.00 0.00 0.00 0.00 0.00 0.00 0.00 0.00 0.00 0.01 0.06 0.13 0.18 0.10 0.09 0.08 0.07 0.07 0.05 0.06 0.05 0.04 0.06 0.06 0.04 0.03 0.01 0.00 0.01 0.00 0.00 0.00 0.00 0.01 0.01 0.02 0.05 0.11
0.00 0.00 0.00 0.00 0.00 0.01 0.03 0.05 0.03 0.01 0.01 0.03 0.09 0.08 0.05 0.04 0.06 0.08 0.10 0.12 0.09 0.03 0.04 0.09 0.03 0.02 0.02 0.01 0.00 0.00 0.00 0.00 0.00 0.00 0.00 0.01 0.03 0.05
0.00 0.00 0.00 0.00 0.01 0.04 0.12 0.08 0.03 0.01 0.01 0.01 0.03 0.05 0.06 0.07 0.12 0.27 0.25 0.24 0.17 0.08 0.08 0.11 0.05 0.04 0.02 0.01 0.02 0.00 0.00 0.00 0.00 0.00 0.00 0.00 0.00 0.00
0.00 0.00 0.00 0.01 0.04 0.11 0.13 0.10 0.07 0.03 0.01 0.01 0.01 0.01 0.02 0.04 0.05 0.13 0.17 0.26 0.16 0.13 0.07 0.15 0.07 0.07 0.08 0.07 0.03 0.02 0.01 0.00 0.00 0.00 0.00 0.00 0.00 0.00
0.00 0.00 0.00 0.02 0.05 0.05 0.07 0.10 0.17 0.08 0.04 0.05 0.05 0.06 0.08 0.11 0.13 0.17 0.22 0.26 0.19 0.14 0.04 0.13 0.08 0.06 0.08 0.13 0.14 0.11 0.07 0.05 0.00 0.00 0.00 0.00 0.00 0.00
0.01 0.01 0.03 0.05 0.05 0.04 0.05 0.10 0.10 0.06 0.07 0.08 0.09 0.10 0.11 0.11 0.12 0.15 0.15 0.16 0.13 0.12 0.08 0.18 0.26 0.09 0.14 0.14 0.12 0.14 0.12 0.11 0.07 0.04 0.02 0.01 0.00 0.00
0.01 0.02 0.04 0.04 0.03 0.02 0.05 0.08 0.05 0.08 0.08 0.09 0.09 0.08 0.08 0.09 0.08 0.11 0.15 0.21 0.17 0.18 0.14 0.19 0.16 0.10 0.14 0.14 0.17 0.21 0.18 0.07 0.04 0.03 0.01 0.02 0.02 0.00
0.01 0.01 0.03 0.02 0.01 0.02 0.03 0.04 0.08 0.08 0.08 0.09 0.08 0.06 0.06 0.05 0.08 0.12 0.09 0.12 0.26 0.40 0.19 0.13 0.11 0.16 0.16 0.11 0.12 0.13 0.09 0.10 0.04 0.04 0.01 0.02 0.03 0.03
0.01 0.01 0.01 0.00 0.01 0.02 0.02 0.03 0.04 0.03 0.03 0.04 0.05 0.04 0.04 0.05 0.07 0.07 0.05 0.04 0.08 0.11 0.20 0.15 0.11 0.10 0.14 0.18 0.26 0.14 0.13 0.13 0.10 0.05 0.03 0.04 0.04 0.03
0.00 0.01 0.01 0.02 0.03 0.04 0.03 0.02 0.02 0.03 0.03 0.04 0.05 0.04 0.04 0.05 0.06 0.03 0.03 0.03 0.04 0.05 0.06 0.04 0.04 0.22 0.21 0.09 0.13 0.27 0.40 0.31 0.12 0.02 0.03 0.09 0.08 0.03
0.01 0.01 0.03 0.03 0.04 0.03 0.02 0.01 0.02 0.04 0.02 0.02 0.04 0.05 0.05 0.05 0.05 0.03 0.02 0.02 0.01 0.02 0.05 0.04 0.03 0.04 0.23 0.45 0.05 0.05 0.16 0.09 0.05 0.02 0.02 0.03 0.10 0.05
0.01 0.01 0.02 0.03 0.02 0.01 0.01 0.00 0.00 0.01 0.00 0.00 0.02 0.03 0.04 0.05 0.04 0.03 0.02 0.02 0.02 0.00 0.01 0.00 0.03 0.02 0.03 0.07 0.06 0.03 0.01 0.02 0.02 0.02 0.01 0.02 0.04 0.04
0.02 0.02 0.02 0.02 0.01 0.00 0.00 0.00 0.00 0.00 0.00 0.00 0.01 0.01 0.02 0.04 0.03 0.04 0.02 0.02 0.01 0.00 0.01 0.01 0.01 0.00 0.02 0.03 0.09 0.09 0.03 0.01 0.01 0.01 0.01 0.03 0.08 0.05
0.01 0.01 0.01 0.01 0.01 0.00 0.01 0.00 0.00 0.00 0.00 0.00 0.00 0.00 0.01 0.02 0.03 0.03 0.02 0.01 0.00 0.00 0.01 0.01 0.02 0.03 0.08 0.07 0.20 0.16 0.03 0.01 0.01 0.00 0.01 0.05 0.10 0.16
0.02 0.02 0.01 0.02 0.01 0.00 0.00 0.00 0.00 0.00 0.00 0.00 0.00 0.00 0.00 0.00 0.00 0.01 0.01 0.00 0.00 0.00 0.00 0.01 0.01 0.04 0.08 0.03 0.09 0.18 0.02 0.02 0.02 0.02 0.01 0.01 0.03 0.05

GFSNE_prec_precacc24_060.txt.gz
Total_Precipitation_Accumulation
0.08 0.09 0.06 0.04 0.02 0.01 0.02 0.03 0.08 0.07 0.01 0.00 0.00 0.00 0.00 0.00 0.00 0.00 0.00 0.00 0.01 0.02 0.05 0.09 0.09 0.05 0.13 0.26 0.30 0.23 0.21 0.16 0.09 0.06 0.08 0.12 0.14 0.15
0.04 0.03 0.02 0.01 0.00 0.00 0.00 0.00 0.01 0.06 0.02 0.00 0.00 0.00 0.00 0.00 0.00 0.00 0.00 0.00 0.00 0.01 0.03 0.07 0.14 0.18 0.17 0.19 0.23 0.27 0.28 0.28 0.18 0.12 0.08 0.06 0.09 0.14
0.01 0.01 0.00 0.00 0.00 0.00 0.00 0.00 0.00 0.00 0.00 0.00 0.00 0.00 0.00 0.00 0.00 0.00 0.00 0.00 0.00 0.00 0.01 0.04 0.09 0.16 0.21 0.20 0.18 0.18 0.27 0.31 0.25 0.13 0.12 0.12 0.08 0.08
0.00 0.00 0.00 0.00 0.00 0.00 0.00 0.00 0.00 0.00 0.00 0.00 0.00 0.00 0.00 0.00 0.00 0.00 0.00 0.00 0.00 0.00 0.00 0.00 0.01 0.05 0.09 0.12 0.14 0.17 0.22 0.29 0.32 0.22 0.10 0.09 0.12 0.12
0.00 0.00 0.00 0.00 0.00 0.00 0.00 0.00 0.00 0.00 0.01 0.02 0.01 0.00 0.00 0.00 0.00 0.00 0.00 0.00 0.00 0.00 0.00 0.00 0.01 0.01 0.02 0.02 0.03 0.05 0.07 0.13 0.21 0.26 0.23 0.13 0.10 0.06
0.01 0.00 0.00 0.00 0.00 0.00 0.00 0.00 0.01 0.01 0.01 0.02 0.01 0.00 0.00 0.00 0.00 0.01 0.01 0.00 0.00 0.00 0.00 0.00 0.00 0.00 0.01 0.01 0.01 0.01 0.01 0.02 0.07 0.16 0.21 0.27 0.19 0.19
0.00 0.00 0.00 0.00 0.00 0.00 0.01 0.00 0.01 0.02 0.01 0.01 0.01 0.01 0.01 0.01 0.02 0.02 0.04 0.02 0.01 0.01 0.01 0.00 0.00 0.01 0.01 0.01 0.02 0.01 0.02 0.02 0.02 0.04 0.09 0.12 0.28 0.32
0.00 0.00 0.00 0.00 0.00 0.00 0.00 0.00 0.01 0.02 0.04 0.05 0.05 0.05 0.03 0.04 0.07 0.09 0.07 0.05 0.04 0.03 0.05 0.03 0.03 0.02 0.01 0.01 0.03 0.01 0.00 0.01 0.02 0.02 0.02 0.05 0.12 0.27
0.00 0.00 0.00 0.00 0.00 0.00 0.00 0.00 0.00 0.01 0.06 0.13 0.17 0.10 0.12 0.09 0.07 0.07 0.05 0.06 0.05 0.04 0.07 0.06 0.04 0.03 0.01 0.00 0.01 0.01 0.00 0.00 0.00 0.01 0.02 0.03 0.06 0.11
0.00 0.00 0.00 0.00 0.00 0.01 0.02 0.05 0.03 0.01 0.01 0.02 0.07 0.07 0.04 0.04 0.06 0.08 0.09 0.09 0.07 0.02 0.05 0.16 0.03 0.02 0.02 0.01 0.00 0.00 0.00 0.00 0.00 0.00 0.00 0.01 0.03 0.07
0.00 0.00 0.00 0.00 0.00 0.02 0.08 0.05 0.02 0.01 0.01 0.01 0.02 0.03 0.03 0.05 0.10 0.23 0.22 0.26 0.18 0.08 0.08 0.13 0.05 0.04 0.02 0.01 0.02 0.00 0.00 0.00 0.00 0.00 0.00 0.00 0.00 0.00
0.00 0.00 0.00 0.00 0.02 0.04 0.07 0.07 0.06 0.03 0.01 0.01 0.01 0.01 0.02 0.04 0.05 0.13 0.19 0.28 0.17 0.12 0.07 0.15 0.07 0.08 0.11 0.07 0.04 0.02 0.01 0.00 0.00 0.01 0.00 0.00 0.00 0.00
0.00 0.00 0.00 0.01 0.02 0.02 0.03 0.06 0.14 0.06 0.02 0.04 0.04 0.05 0.07 0.09 0.11 0.13 0.13 0.15 0.15 0.10 0.03 0.14 0.15 0.09 0.13 0.15 0.14 0.12 0.13 0.10 0.02 0.00 0.00 0.00 0.00 0.00
0.01 0.00 0.02 0.02 0.01 0.01 0.02 0.04 0.04 0.02 0.04 0.04 0.04 0.06 0.06 0.07 0.08 0.11 0.12 0.14 0.12 0.11 0.10 0.29 0.38 0.15 0.17 0.13 0.12 0.15 0.17 0.24 0.23 0.04 0.02 0.01 0.00 0.00
0.00 0.01 0.01 0.00 0.00 0.00 0.01 0.02 0.02 0.03 0.02 0.02 0.03 0.03 0.04 0.05 0.05 0.08 0.13 0.20 0.16 0.18 0.19 0.25 0.18 0.12 0.16 0.16 0.18 0.22 0.31 0.20 0.09 0.05 0.04 0.02 0.02 0.00
0.01 0.00 0.00 0.00 0.00 0.00 0.00 0.01 0.02 0.03 0.04 0.05 0.05 0.04 0.04 0.04 0.07 0.10 0.08 0.12 0.26 0.40 0.20 0.15 0.13 0.19 0.18 0.12 0.13 0.13 0.09 0.12 0.16 0.08 0.02 0.02 0.03 0.03
0.02 0.02 0.01 0.01 0.00 0.00 0.00 0.01 0.01 0.01 0.01 0.03 0.03 0.03 0.03 0.05 0.07 0.06 0.05 0.04 0.08 0.10 0.20 0.15 0.11 0.10 0.15 0.18 0.23 0.14 0.14 0.15 0.14 0.06 0.03 0.04 0.04 0.03
0.02 0.01 0.01 0.01 0.01 0.01 0.00 0.00 0.00 0.00 0.00 0.02 0.03 0.03 0.04 0.04 0.04 0.03 0.03 0.03 0.04 0.05 0.05 0.03 0.04 0.22 0.20 0.09 0.08 0.30 0.62 0.46 0.20 0.01 0.02 0.09 0.14 0.11
0.05 0.01 0.02 0.02 0.01 0.01 0.01 0.00 0.00 0.00 0.00 0.00 0.02 0.03 0.03 0.03 0.03 0.03 0.02 0.02 0.01 0.02 0.02 0.02 0.03 0.03 0.21 0.47 0.06 0.04 0.24 0.18 0.06 0.00 0.01 0.10 0.21 0.12
0.03 0.01 0.01 0.01 0.01 0.00 0.00 0.00 0.00 0.00 0.00 0.00 0.00 0.01 0.02 0.02 0.02 0.02 0.02 0.01 0.01 0.00 0.00 0.00 0.03 0.02 0.04 0.08 0.06 0.02 0.01 0.02 0.02 0.02 0.03 0.03 0.05 0.04
0.02 0.03 0.02 0.01 0.01 0.00 0.01 0.00 0.00 0.00 0.00 0.00 0.00 0.00 0.01 0.01 0.01 0.02 0.01 0.01 0.00 0.00 0.01 0.01 0.01 0.01 0.04 0.04 0.07 0.10 0.03 0.01 0.01 0.01 0.01 0.04 0.09 0.02
0.02 0.02 0.01 0.01 0.01 0.01 0.00 0.00 0.00 0.00 0.00 0.00 0.00 0.00 0.00 0.00 0.01 0.01 0.01 0.00 0.00 0.00 0.01 0.01 0.02 0.05 0.14 0.11 0.20 0.17 0.03 0.01 0.00 0.00 0.01 0.04 0.08 0.12
0.05 0.04 0.02 0.02 0.01 0.01 0.00 0.00 0.00 0.00 0.00 0.00 0.00 0.00 0.00 0.00 0.00 0.00 0.00 0.00 0.00 0.00 0.00 0.01 0.01 0.04 0.10 0.04 0.11 0.19 0.02 0.01 0.01 0.02 0.01 0.00 0.02 0.03

GFSNE_prec_precacc24_066.txt.gz
Total_Precipitation_Accumulation
0.08 0.08 0.05 0.02 0.01 0.00 0.01 0.03 0.06 0.05 0.01 0.00 0.00 0.00 0.00 0.00 0.00 0.00 0.00 0.00 0.00 0.00 0.00 0.00 0.00 0.00 0.00 0.00 0.02 0.03 0.07 0.15 0.09 0.06 0.08 0.12 0.14 0.15
0.04 0.02 0.01 0.01 0.00 0.00 0.00 0.00 0.01 0.06 0.05 0.00 0.00 0.00 0.00 0.00 0.00 0.00 0.00 0.00 0.00 0.00 0.00 0.00 0.00 0.00 0.00 0.01 0.03 0.06 0.14 0.24 0.18 0.12 0.09 0.06 0.09 0.14
0.01 0.01 0.00 0.00 0.00 0.00 0.00 0.00 0.01 0.01 0.01 0.00 0.00 0.00 0.00 0.00 0.00 0.00 0.00 0.00 0.00 0.00 0.00 0.01 0.01 0.01 0.01 0.01 0.02 0.06 0.15 0.21 0.20 0.12 0.12 0.13 0.09 0.09
0.00 0.00 0.00 0.00 0.00 0.00 0.00 0.00 0.00 0.00 0.00 0.00 0.00 0.00 0.00 0.00 0.00 0.00 0.00 0.00 0.00 0.00 0.00 0.00 0.00 0.00 0.00 0.00 0.02 0.06 0.11 0.20 0.27 0.18 0.09 0.09 0.13 0.13
0.00 0.00 0.00 0.00 0.00 0.00 0.00 0.00 0.00 0.00 0.00 0.01 0.00 0.00 0.00 0.00 0.00 0.00 0.00 0.00 0.00 0.00 0.00 0.00 0.01 0.01 0.01 0.01 0.01 0.02 0.05 0.09 0.16 0.23 0.22 0.12 0.10 0.06
0.01 0.00 0.00 0.00 0.00 0.00 0.00 0.00 0.00 0.01 0.00 0.01 0.01 0.00 0.00 0.00 0.00 0.01 0.01 0.00 0.00 0.00 0.00 0.00 0.00 0.00 0.01 0.00 0.00 0.01 0.01 0.02 0.06 0.13 0.19 0.27 0.18 0.19
0.00 0.00 0.00 0.00 0.00 0.00 0.00 0.00 0.01 0.01 0.01 0.01 0.01 0.01 0.01 0.01 0.02 0.03 0.04 0.02 0.01 0.01 0.01 0.00 0.00 0.01 0.01 0.01 0.02 0.01 0.02 0.02 0.02 0.04 0.09 0.12 0.28 0.31
0.00 0.00 0.00 0.00 0.00 0.00 0.00 0.00 0.00 0.01 0.02 0.03 0.04 0.04 0.03 0.04 0.07 0.09 0.07 0.05 0.05 0.03 0.05 0.03 0.03 0.02 0.01 0.01 0.03 0.01 0.00 0.01 0.02 0.02 0.03 0.06 0.12 0.27
0.00 0.00 0.00 0.00 0.00 0.00 0.00 0.00 0.00 0.01 0.04 0.10 0.12 0.09 0.11 0.09 0.07 0.07 0.05 0.07 0.07 0.04 0.07 0.07 0.04 0.03 0.01 0.00 0.01 0.01 0.00 0.00 0.00 0.01 0.02 0.03 0.06 0.11
0.00 0.00 0.00 0.00 0.00 0.00 0.02 0.04 0.02 0.01 0.01 0.02 0.07 0.06 0.04 0.03 0.05 0.07 0.09 0.09 0.07 0.02 0.05 0.16 0.03 0.02 0.02 0.01 0.00 0.00 0.00 0.00 0.00 0.00 0.00 0.01 0.03 0.07
0.00 0.00 0.00 0.00 0.00 0.01 0.04 0.03 0.01 0.01 0.01 0.01 0.02 0.02 0.02 0.03 0.06 0.16 0.15 0.20 0.17 0.08 0.08 0.13 0.05 0.04 0.02 0.01 0.02 0.00 0.00 0.00 0.01 0.01 0.01 0.00 0.00 0.01
0.00 0.00 0.00 0.00 0.00 0.01 0.02 0.03 0.03 0.02 0.01 0.01 0.01 0.01 0.02 0.04 0.05 0.13 0.18 0.27 0.17 0.12 0.07 0.15 0.07 0.10 0.16 0.07 0.04 0.02 0.01 0.00 0.00 0.01 0.01 0.00 0.01 0.01
0.00 0.00 0.00 0.00 0.00 0.01 0.01 0.02 0.06 0.02 0.01 0.02 0.02 0.02 0.03 0.05 0.07 0.10 0.11 0.14 0.14 0.10 0.03 0.17 0.16 0.10 0.19 0.16 0.14 0.12 0.13 0.10 0.06 0.05 0.01 0.01 0.01 0.02
0.00 0.00 0.00 0.00 0.00 0.00 0.00 0.01 0.01 0.01 0.02 0.01 0.01 0.02 0.02 0.02 0.01 0.02 0.05 0.09 0.11 0.11 0.09 0.26 0.38 0.17 0.20 0.14 0.12 0.15 0.17 0.24 0.40 0.11 0.03 0.01 0.00 0.01
0.01 0.01 0.01 0.02 0.03 0.03 0.01 0.01 0.01 0.01 0.01 0.02 0.02 0.02 0.02 0.02 0.02 0.04 0.04 0.10 0.12 0.16 0.15 0.17 0.14 0.11 0.15 0.18 0.20 0.22 0.31 0.21 0.10 0.06 0.05 0.04 0.03 0.01
0.02 0.01 0.02 0.03 0.03 0.03 0.02 0.02 0.03 0.01 0.01 0.02 0.02 0.02 0.02 0.02 0.04 0.05 0.04 0.06 0.22 0.37 0.18 0.13 0.11 0.13 0.15 0.12 0.13 0.13 0.10 0.17 0.18 0.10 0.03 0.02 0.05 0.04
0.03 0.03 0.02 0.02 0.02 0.02 0.01 0.01 0.01 0.01 0.01 0.01 0.01 0.01 0.01 0.02 0.02 0.03 0.03 0.03 0.08 0.10 0.18 0.14 0.10 0.08 0.12 0.15 0.20 0.14 0.16 0.19 0.20 0.10 0.04 0.04 0.04 0.03
0.12 0.03 0.01 0.01 0.02 0.02 0.01 0.01 0.01 0.01 0.01 0.00 0.00 0.01 0.01 0.01 0.01 0.02 0.02 0.03 0.03 0.03 0.04 0.02 0.04 0.21 0.19 0.08 0.07 0.30 0.64 0.53 0.26 0.03 0.02 0.09 0.15 0.13
0.21 0.05 0.02 0.02 0.02 0.03 0.03 0.01 0.01 0.00 0.00 0.00 0.00 0.01 0.01 0.01 0.01 0.02 0.01 0.01 0.01 0.01 0.01 0.01 0.03 0.03 0.22 0.48 0.06 0.05 0.25 0.19 0.08 0.01 0.01 0.11 0.29 0.20
0.08 0.06 0.05 0.03 0.03 0.03 0.03 0.03 0.01 0.01 0.00 0.00 0.00 0.00 0.00 0.01 0.01 0.01 0.01 0.01 0.01 0.00 0.00 0.00 0.03 0.01 0.05 0.08 0.06 0.02 0.02 0.02 0.02 0.02 0.03 0.04 0.06 0.07
0.04 0.06 0.05 0.06 0.04 0.03 0.04 0.04 0.03 0.01 0.00 0.00 0.00 0.00 0.00 0.01 0.00 0.01 0.01 0.00 0.00 0.00 0.01 0.01 0.01 0.02 0.07 0.08 0.10 0.11 0.04 0.01 0.01 0.02 0.02 0.05 0.09 0.02
0.06 0.07 0.04 0.06 0.08 0.07 0.05 0.05 0.05 0.02 0.01 0.00 0.00 0.00 0.00 0.00 0.00 0.00 0.00 0.00 0.00 0.00 0.01 0.01 0.02 0.05 0.17 0.17 0.25 0.21 0.04 0.01 0.00 0.01 0.03 0.07 0.10 0.12
0.10 0.11 0.08 0.09 0.09 0.11 0.10 0.08 0.05 0.03 0.01 0.00 0.00 0.01 0.01 0.00 0.00 0.00 0.00 0.00 0.00 0.00 0.00 0.01 0.01 0.04 0.09 0.05 0.13 0.20 0.03 0.02 0.01 0.02 0.02 0.04 0.06 0.05

GFSNE_prec_precacc24_072.txt.gz
Total_Precipitation_Accumulation
0.05 0.05 0.04 0.02 0.01 0.00 0.00 0.01 0.03 0.03 0.00 0.00 0.00 0.00 0.00 0.00 0.00 0.00 0.00 0.00 0.00 0.00 0.00 0.00 0.00 0.00 0.00 0.00 0.00 0.00 0.00 0.00 0.00 0.00 0.00 0.01 0.05 0.09
0.03 0.02 0.01 0.01 0.00 0.00 0.00 0.00 0.00 0.05 0.05 0.00 0.00 0.00 0.00 0.00 0.00 0.00 0.00 0.00 0.00 0.00 0.00 0.00 0.00 0.00 0.00 0.00 0.01 0.01 0.01 0.01 0.01 0.01 0.02 0.03 0.04 0.06
0.01 0.01 0.00 0.00 0.00 0.00 0.00 0.00 0.01 0.02 0.01 0.00 0.00 0.00 0.00 0.00 0.00 0.00 0.00 0.00 0.00 0.00 0.00 0.01 0.01 0.01 0.01 0.01 0.01 0.01 0.01 0.00 0.00 0.01 0.01 0.03 0.05 0.08
0.00 0.00 0.00 0.00 0.00 0.00 0.00 0.00 0.00 0.00 0.01 0.01 0.00 0.00 0.00 0.00 0.00 0.00 0.00 0.00 0.00 0.00 0.00 0.00 0.00 0.00 0.00 0.00 0.00 0.00 0.00 0.00 0.00 0.01 0.02 0.02 0.08 0.13
0.00 0.00 0.00 0.00 0.00 0.00 0.00 0.00 0.00 0.00 0.00 0.00 0.00 0.00 0.00 0.00 0.00 0.00 0.00 0.00 0.00 0.00 0.00 0.00 0.01 0.01 0.01 0.01 0.00 0.00 0.00 0.00 0.00 0.00 0.06 0.06 0.06 0.06
0.01 0.00 0.00 0.00 0.00 0.00 0.00 0.00 0.00 0.00 0.00 0.00 0.01 0.00 0.00 0.00 0.00 0.00 0.00 0.00 0.00 0.00 0.00 0.00 0.00 0.00 0.01 0.00 0.00 0.00 0.00 0.00 0.00 0.01 0.02 0.11 0.12 0.16
0.00 0.00 0.00 0.00 0.00 0.00 0.00 0.00 0.00 0.00 0.00 0.00 0.01 0.00 0.00 0.00 0.01 0.02 0.03 0.02 0.01 0.00 0.00 0.00 0.00 0.01 0.01 0.01 0.02 0.01 0.01 0.01 0.01 0.01 0.02 0.05 0.17 0.23
0.00 0.00 0.00 0.00 0.00 0.00 0.00 0.00 0.00 0.00 0.01 0.02 0.02 0.02 0.02 0.03 0.06 0.07 0.05 0.03 0.03 0.02 0.03 0.02 0.02 0.02 0.01 0.01 0.03 0.01 0.00 0.00 0.01 0.01 0.01 0.03 0.08 0.24
0.00 0.00 0.00 0.00 0.00 0.00 0.00 0.00 0.00 0.00 0.03 0.04 0.05 0.05 0.08 0.07 0.05 0.04 0.02 0.04 0.04 0.02 0.05 0.04 0.02 0.02 0.01 0.00 0.01 0.01 0.00 0.00 0.00 0.01 0.01 0.02 0.05 0.11
0.00 0.00 0.00 0.00 0.00 0.00 0.00 0.00 0.00 0.00 0.00 0.01 0.02 0.02 0.01 0.01 0.01 0.02 0.05 0.05 0.03 0.01 0.04 0.12 0.02 0.02 0.01 0.01 0.00 0.00 0.00 0.00 0.00 0.00 0.00 0.01 0.03 0.07
0.00 0.00 0.00 0.00 0.00 0.00 0.00 0.00 0.00 0.00 0.00 0.00 0.00 0.00 0.00 0.00 0.01 0.07 0.08 0.12 0.10 0.05 0.05 0.08 0.03 0.03 0.01 0.01 0.01 0.00 0.00 0.00 0.01 0.01 0.01 0.00 0.00 0.01
0.00 0.00 0.00 0.00 0.00 0.00 0.00 0.01 0.02 0.01 0.00 0.00 0.00 0.00 0.00 0.01 0.02 0.07 0.14 0.21 0.13 0.08 0.04 0.10 0.05 0.09 0.15 0.05 0.03 0.01 0.01 0.00 0.00 0.01 0.01 0.00 0.01 0.02
0.00 0.00 0.00 0.00 0.00 0.00 0.00 0.01 0.01 0.00 0.01 0.01 0.01 0.01 0.01 0.02 0.02 0.01 0.02 0.05 0.10 0.08 0.03 0.16 0.16 0.07 0.16 0.10 0.10 0.10 0.11 0.09 0.07 0.06 0.02 0.01 0.02 0.03
0.01 0.01 0.01 0.00 0.00 0.00 0.01 0.00 0.00 0.01 0.03 0.03 0.02 0.02 0.01 0.01 0.01 0.01 0.01 0.02 0.04 0.08 0.06 0.23 0.35 0.12 0.15 0.10 0.07 0.11 0.15 0.23 0.40 0.12 0.04 0.02 0.01 0.02
0.03 0.02 0.02 0.03 0.06 0.08 0.05 0.04 0.08 0.13 0.10 0.08 0.04 0.02 0.01 0.01 0.01 0.02 0.02 0.02 0.04 0.11 0.11 0.09 0.09 0.06 0.11 0.13 0.14 0.18 0.30 0.20 0.10 0.08 0.07 0.05 0.04 0.01
0.05 0.05 0.05 0.06 0.07 0.07 0.06 0.06 0.08 0.07 0.06 0.06 0.03 0.02 0.02 0.03 0.02 0.02 0.01 0.01 0.07 0.24 0.10 0.05 0.05 0.06 0.05 0.04 0.07 0.06 0.08 0.17 0.18 0.10 0.05 0.04 0.05 0.04
0.11 0.12 0.09 0.07 0.07 0.07 0.06 0.04 0.03 0.03 0.05 0.03 0.03 0.04 0.04 0.02 0.02 0.01 0.02 0.01 0.03 0.05 0.11 0.08 0.07 0.04 0.03 0.05 0.09 0.07 0.12 0.17 0.19 0.11 0.06 0.04 0.04 0.06
0.25 0.16 0.09 0.09 0.09 0.08 0.08 0.05 0.03 0.02 0.02 0.02 0.02 0.02 0.03 0.03 0.02 0.01 0.02 0.02 0.02 0.01 0.01 0.00 0.02 0.14 0.12 0.05 0.05 0.24 0.61 0.51 0.28 0.06 0.07 0.12 0.19 0.16
0.33 0.17 0.14 0.14 0.14 0.14 0.11 0.08 0.05 0.03 0.04 0.04 0.02 0.01 0.02 0.02 0.02 0.02 0.02 0.02 0.01 0.00 0.00 0.00 0.02 0.02 0.19 0.43 0.06 0.05 0.24 0.20 0.09 0.01 0.01 0.13 0.34 0.23
0.12 0.11 0.10 0.07 0.06 0.08 0.09 0.09 0.07 0.06 0.07 0.04 0.03 0.02 0.03 0.02 0.02 0.01 0.01 0.01 0.01 0.00 0.00 0.00 0.03 0.01 0.05 0.08 0.06 0.02 0.02 0.03 0.03 0.03 0.04 0.04 0.08 0.08
0.05 0.07 0.07 0.09 0.09 0.07 0.08 0.10 0.10 0.08 0.06 0.05 0.03 0.03 0.03 0.02 0.01 0.01 0.01 0.01 0.00 0.00 0.01 0.01 0.00 0.02 0.06 0.08 0.10 0.11 0.06 0.01 0.01 0.03 0.02 0.05 0.11 0.04
0.09 0.09 0.07 0.09 0.12 0.12 0.10 0.10 0.10 0.08 0.08 0.06 0.04 0.04 0.04 0.02 0.01 0.01 0.01 0.01 0.00 0.00 0.01 0.01 0.01 0.03 0.14 0.17 0.23 0.21 0.08 0.02 0.00 0.01 0.05 0.10 0.14 0.15
0.12 0.12 0.10 0.11 0.11 0.14 0.14 0.14 0.12 0.10 0.11 0.10 0.08 0.06 0.06 0.03 0.01 0.01 0.01 0.00 0.00 0.00 0.00 0.00 0.01 0.03 0.07 0.04 0.12 0.18 0.05 0.04 0.02 0.02 0.03 0.05 0.07 0.07

GFSNE_prec_precacc24_078.txt.gz
Total_Precipitation_Accumulation
0.00 0.00 0.00 0.00 0.00 0.00 0.00 0.01 0.03 0.02 0.00 0.00 0.00 0.00 0.00 0.00 0.00 0.00 0.00 0.00 0.00 0.00 0.00 0.00 0.00 0.00 0.00 0.00 0.00 0.00 0.00 0.00 0.00 0.00 0.00 0.00 0.00 0.00
0.00 0.00 0.00 0.00 0.00 0.00 0.00 0.00 0.00 0.04 0.05 0.00 0.00 0.00 0.00 0.00 0.00 0.00 0.00 0.00 0.00 0.00 0.00 0.00 0.00 0.00 0.00 0.00 0.00 0.01 0.01 0.01 0.01 0.01 0.01 0.02 0.02 0.02
0.00 0.00 0.00 0.00 0.00 0.00 0.00 0.00 0.01 0.02 0.01 0.00 0.00 0.00 0.00 0.00 0.00 0.00 0.00 0.00 0.00 0.00 0.00 0.00 0.00 0.00 0.00 0.01 0.01 0.01 0.01 0.00 0.00 0.00 0.00 0.00 0.01 0.02
0.00 0.00 0.00 0.00 0.00 0.00 0.00 0.00 0.00 0.00 0.01 0.01 0.00 0.00 0.00 0.00 0.00 0.00 0.00 0.00 0.00 0.00 0.00 0.00 0.00 0.00 0.00 0.00 0.00 0.00 0.00 0.00 0.00 0.00 0.00 0.00 0.01 0.01
0.00 0.00 0.00 0.00 0.00 0.00 0.00 0.00 0.00 0.00 0.00 0.00 0.00 0.00 0.00 0.00 0.00 0.00 0.00 0.00 0.00 0.00 0.00 0.00 0.00 0.00 0.00 0.00 0.00 0.00 0.00 0.00 0.00 0.00 0.00 0.00 0.01 0.01
0.00 0.00 0.00 0.00 0.00 0.00 0.00 0.00 0.00 0.00 0.00 0.00 0.00 0.00 0.00 0.00 0.01 0.02 0.01 0.01 0.00 0.00 0.00 0.00 0.00 0.00 0.00 0.00 0.00 0.00 0.00 0.00 0.00 0.00 0.00 0.00 0.00 0.01
0.00 0.00 0.00 0.00 0.00 0.00 0.00 0.00 0.00 0.00 0.00 0.00 0.01 0.01 0.01 0.01 0.02 0.04 0.04 0.01 0.00 0.00 0.00 0.00 0.00 0.00 0.00 0.00 0.00 0.01 0.01 0.01 0.01 0.01 0.01 0.00 0.00 0.01
0.00 0.00 0.00 0.00 0.00 0.00 0.00 0.00 0.00 0.00 0.01 0.02 0.03 0.03 0.03 0.04 0.07 0.05 0.04 0.03 0.01 0.00 0.00 0.00 0.00 0.00 0.00 0.00 0.00 0.00 0.00 0.00 0.01 0.01 0.01 0.01 0.01 0.01
0.00 0.00 0.00 0.00 0.00 0.00 0.00 0.00 0.00 0.00 0.00 0.02 0.03 0.03 0.05 0.04 0.03 0.01 0.00 0.02 0.01 0.00 0.01 0.01 0.00 0.00 0.00 0.00 0.00 0.00 0.00 0.00 0.00 0.00 0.00 0.01 0.01 0.00
0.00 0.00 0.00 0.00 0.00 0.00 0.00 0.00 0.01 0.02 0.02 0.01 0.01 0.01 0.01 0.00 0.01 0.02 0.03 0.02 0.01 0.00 0.01 0.09 0.00 0.00 0.00 0.00 0.00 0.00 0.00 0.00 0.00 0.00 0.00 0.00 0.00 0.01
0.00 0.00 0.00 0.00 0.00 0.00 0.00 0.01 0.01 0.00 0.00 0.00 0.02 0.01 0.00 0.00 0.00 0.02 0.03 0.06 0.03 0.01 0.00 0.03 0.00 0.00 0.00 0.00 0.00 0.00 0.00 0.00 0.01 0.02 0.01 0.00 0.00 0.01
0.00 0.00 0.00 0.00 0.00 0.00 0.01 0.02 0.04 0.01 0.01 0.02 0.03 0.02 0.01 0.01 0.00 0.01 0.03 0.05 0.03 0.03 0.00 0.02 0.00 0.04 0.10 0.00 0.00 0.00 0.00 0.01 0.01 0.01 0.02 0.02 0.02 0.03
0.00 0.00 0.00 0.00 0.00 0.00 0.01 0.03 0.03 0.01 0.02 0.04 0.05 0.04 0.02 0.02 0.00 0.00 0.00 0.03 0.07 0.04 0.00 0.10 0.11 0.04 0.13 0.03 0.00 0.02 0.05 0.06 0.08 0.07 0.03 0.03 0.04 0.05
0.01 0.00 0.00 0.00 0.01 0.00 0.01 0.01 0.01 0.02 0.07 0.07 0.07 0.05 0.03 0.03 0.02 0.02 0.01 0.01 0.01 0.02 0.03 0.18 0.29 0.12 0.13 0.06 0.01 0.01 0.06 0.14 0.35 0.09 0.05 0.04 0.03 0.04
0.04 0.02 0.02 0.03 0.06 0.08 0.05 0.05 0.10 0.17 0.16 0.15 0.09 0.05 0.03 0.02 0.02 0.02 0.02 0.01 0.01 0.00 0.05 0.07 0.08 0.06 0.09 0.11 0.05 0.01 0.14 0.15 0.08 0.08 0.09 0.06 0.04 0.02
0.05 0.05 0.06 0.07 0.07 0.08 0.07 0.07 0.11 0.10 0.10 0.10 0.07 0.05 0.06 0.07 0.05 0.03 0.03 0.02 0.03 0.01 0.01 0.02 0.03 0.04 0.05 0.03 0.04 0.02 0.02 0.10 0.16 0.09 0.07 0.04 0.03 0.03
0.11 0.13 0.10 0.10 0.09 0.09 0.09 0.07 0.06 0.07 0.10 0.07 0.06 0.05 0.06 0.06 0.05 0.03 0.04 0.03 0.06 0.02 0.01 0.00 0.00 0.00 0.02 0.02 0.01 0.01 0.05 0.10 0.15 0.14 0.14 0.06 0.03 0.08
0.25 0.16 0.10 0.10 0.10 0.10 0.12 0.11 0.10 0.10 0.10 0.11 0.11 0.07 0.04 0.05 0.04 0.04 0.03 0.03 0.03 0.02 0.01 0.00 0.01 0.01 0.01 0.03 0.03 0.08 0.31 0.30 0.21 0.08 0.07 0.08 0.13 0.14
0.32 0.17 0.13 0.13 0.14 0.15 0.14 0.13 0.13 0.13 0.16 0.19 0.17 0.14 0.09 0.05 0.04 0.04 0.05 0.05 0.03 0.01 0.01 0.01 0.02 0.01 0.03 0.06 0.04 0.04 0.14 0.16 0.09 0.01 0.02 0.15 0.31 0.20
0.11 0.11 0.09 0.06 0.06 0.09 0.09 0.10 0.09 0.09 0.12 0.10 0.11 0.12 0.13 0.13 0.11 0.07 0.04 0.04 0.04 0.02 0.01 0.00 0.00 0.01 0.04 0.04 0.04 0.01 0.02 0.03 0.04 0.04 0.04 0.05 0.08 0.08
0.03 0.06 0.06 0.09 0.09 0.07 0.09 0.11 0.12 0.11 0.11 0.12 0.10 0.10 0.10 0.12 0.11 0.08 0.06 0.03 0.02 0.02 0.02 0.00 0.00 0.02 0.06 0.08 0.07 0.08 0.10 0.02 0.02 0.03 0.03 0.05 0.07 0.05
0.08 0.09 0.06 0.09 0.12 0.12 0.11 0.12 0.12 0.10 0.11 0.11 0.11 0.13 0.13 0.13 0.11 0.09 0.09 0.08 0.03 0.01 0.00 0.00 0.00 0.02 0.10 0.14 0.11 0.10 0.12 0.12 0.01 0.01 0.05 0.10 0.13 0.09
0.11 0.11 0.09 0.10 0.11 0.14 0.15 0.15 0.13 0.12 0.13 0.14 0.13 0.12 0.14 0.13 0.10 0.10 0.11 0.08 0.03 0.02 0.00 0.00 0.00 0.00 0.02 0.03 0.08 0.07 0.06 0.07 0.06 0.04 0.05 0.05 0.07 0.07

GFSNE_prec_precacc24_081.txt.gz
Total_Precipitation_Accumulation
0.01 0.01 0.01 0.00 0.00 0.00 0.00 0.01 0.03 0.02 0.00 0.00 0.00 0.00 0.00 0.00 0.00 0.00 0.00 0.00 0.00 0.00 0.00 0.00 0.00 0.00 0.00 0.00 0.00 0.00 0.00 0.00 0.00 0.00 0.00 0.00 0.00 0.00
0.05 0.01 0.00 0.00 0.00 0.00 0.00 0.00 0.00 0.04 0.05 0.00 0.00 0.00 0.00 0.00 0.00 0.00 0.00 0.00 0.00 0.00 0.00 0.00 0.00 0.00 0.00 0.00 0.00 0.00 0.01 0.01 0.01 0.01 0.01 0.02 0.02 0.02
0.02 0.01 0.00 0.00 0.00 0.00 0.00 0.00 0.01 0.02 0.01 0.00 0.00 0.00 0.00 0.00 0.00 0.00 0.00 0.00 0.00 0.00 0.00 0.00 0.00 0.00 0.00 0.01 0.00 0.00 0.00 0.00 0.00 0.00 0.00 0.00 0.01 0.02
0.01 0.00 0.00 0.00 0.00 0.00 0.00 0.00 0.00 0.00 0.01 0.01 0.00 0.00 0.00 0.00 0.00 0.00 0.00 0.00 0.00 0.00 0.00 0.00 0.00 0.00 0.00 0.00 0.00 0.00 0.00 0.00 0.00 0.00 0.00 0.00 0.01 0.01
0.00 0.00 0.00 0.00 0.00 0.00 0.00 0.00 0.00 0.00 0.00 0.00 0.00 0.00 0.00 0.00 0.00 0.00 0.00 0.00 0.00 0.00 0.00 0.00 0.00 0.00 0.00 0.00 0.00 0.00 0.00 0.00 0.00 0.00 0.00 0.00 0.01 0.01
0.00 0.00 0.00 0.00 0.00 0.00 0.00 0.00 0.00 0.00 0.00 0.00 0.00 0.00 0.00 0.00 0.01 0.02 0.01 0.01 0.00 0.00 0.00 0.00 0.00 0.00 0.00 0.00 0.00 0.00 0.00 0.00 0.00 0.00 0.00 0.00 0.00 0.00
0.00 0.00 0.00 0.00 0.00 0.00 0.00 0.00 0.00 0.00 0.00 0.00 0.01 0.01 0.01 0.01 0.02 0.04 0.04 0.01 0.01 0.00 0.00 0.00 0.00 0.00 0.00 0.00 0.00 0.00 0.00 0.00 0.01 0.01 0.01 0.00 0.00 0.00
0.00 0.00 0.00 0.00 0.00 0.00 0.00 0.00 0.00 0.00 0.01 0.02 0.03 0.03 0.03 0.03 0.04 0.04 0.04 0.04 0.03 0.00 0.00 0.00 0.00 0.00 0.00 0.00 0.00 0.00 0.00 0.00 0.00 0.01 0.01 0.01 0.01 0.01
0.00 0.00 0.00 0.00 0.00 0.00 0.00 0.00 0.00 0.00 0.00 0.02 0.03 0.03 0.04 0.03 0.03 0.03 0.01 0.02 0.01 0.00 0.01 0.01 0.00 0.00 0.00 0.00 0.00 0.00 0.00 0.00 0.00 0.00 0.00 0.00 0.00 0.00
0.00 0.00 0.00 0.00 0.00 0.00 0.00 0.00 0.01 0.02 0.02 0.01 0.01 0.01 0.01 0.01 0.02 0.03 0.03 0.02 0.01 0.00 0.00 0.02 0.00 0.00 0.00 0.00 0.00 0.00 0.00 0.00 0.00 0.00 0.00 0.00 0.00 0.00
0.00 0.00 0.00 0.00 0.00 0.00 0.00 0.01 0.01 0.00 0.00 0.00 0.02 0.01 0.00 0.00 0.01 0.03 0.03 0.04 0.02 0.00 0.00 0.01 0.00 0.00 0.00 0.00 0.00 0.00 0.00 0.00 0.01 0.02 0.01 0.01 0.01 0.01
0.00 0.00 0.00 0.00 0.00 0.00 0.01 0.02 0.04 0.01 0.01 0.02 0.03 0.02 0.01 0.01 0.02 0.04 0.04 0.08 0.03 0.03 0.00 0.01 0.00 0.03 0.08 0.00 0.00 0.00 0.00 0.00 0.00 0.01 0.02 0.02 0.03 0.03
0.00 0.00 0.00 0.00 0.00 0.00 0.01 0.03 0.03 0.01 0.02 0.04 0.05 0.04 0.02 0.02 0.01 0.00 0.00 0.01 0.03 0.02 0.00 0.08 0.09 0.03 0.11 0.03 0.00 0.00 0.00 0.04 0.08 0.07 0.03 0.03 0.04 0.05
0.01 0.00 0.00 0.00 0.01 0.00 0.01 0.01 0.01 0.02 0.08 0.08 0.07 0.05 0.03 0.03 0.02 0.02 0.02 0.01 0.01 0.01 0.00 0.09 0.19 0.10 0.11 0.06 0.01 0.00 0.00 0.10 0.33 0.09 0.05 0.04 0.03 0.04
0.04 0.02 0.02 0.03 0.06 0.08 0.05 0.05 0.10 0.17 0.17 0.16 0.10 0.06 0.03 0.02 0.03 0.04 0.03 0.03 0.02 0.00 0.00 0.01 0.04 0.04 0.08 0.10 0.05 0.01 0.02 0.04 0.06 0.06 0.07 0.06 0.04 0.02
0.05 0.05 0.06 0.07 0.07 0.08 0.07 0.07 0.11 0.10 0.11 0.12 0.10 0.07 0.07 0.07 0.05 0.04 0.07 0.07 0.08 0.03 0.00 0.00 0.00 0.01 0.03 0.02 0.04 0.02 0.02 0.08 0.11 0.09 0.06 0.04 0.03 0.03
0.09 0.12 0.10 0.10 0.09 0.09 0.09 0.07 0.06 0.07 0.11 0.10 0.10 0.09 0.08 0.07 0.06 0.04 0.05 0.04 0.07 0.02 0.01 0.00 0.00 0.00 0.01 0.02 0.01 0.01 0.05 0.09 0.12 0.13 0.15 0.08 0.03 0.08
0.25 0.16 0.10 0.10 0.10 0.09 0.12 0.11 0.10 0.10 0.10 0.11 0.12 0.12 0.14 0.15 0.14 0.09 0.05 0.04 0.03 0.02 0.01 0.00 0.01 0.01 0.01 0.01 0.02 0.04 0.13 0.21 0.16 0.08 0.07 0.07 0.09 0.09
0.31 0.17 0.13 0.13 0.14 0.15 0.14 0.13 0.13 0.13 0.16 0.19 0.17 0.15 0.14 0.12 0.10 0.09 0.08 0.07 0.04 0.01 0.01 0.00 0.01 0.02 0.02 0.02 0.02 0.03 0.07 0.09 0.08 0.01 0.02 0.11 0.22 0.18
0.11 0.11 0.09 0.06 0.06 0.09 0.09 0.10 0.09 0.09 0.12 0.10 0.12 0.12 0.14 0.16 0.16 0.14 0.11 0.11 0.09 0.05 0.01 0.00 0.00 0.01 0.04 0.03 0.04 0.01 0.02 0.03 0.04 0.04 0.04 0.04 0.06 0.06
0.03 0.06 0.06 0.09 0.09 0.07 0.09 0.11 0.12 0.11 0.11 0.12 0.10 0.11 0.11 0.13 0.13 0.12 0.12 0.09 0.06 0.04 0.03 0.01 0.00 0.02 0.06 0.08 0.06 0.06 0.10 0.02 0.02 0.03 0.03 0.04 0.05 0.05
0.08 0.09 0.06 0.09 0.12 0.12 0.11 0.12 0.12 0.10 0.11 0.11 0.12 0.13 0.13 0.15 0.14 0.12 0.12 0.12 0.07 0.03 0.01 0.00 0.00 0.01 0.06 0.11 0.09 0.09 0.12 0.12 0.01 0.01 0.05 0.10 0.11 0.08
0.10 0.11 0.09 0.10 0.11 0.14 0.15 0.15 0.13 0.12 0.13 0.14 0.14 0.13 0.14 0.14 0.12 0.13 0.14 0.13 0.13 0.11 0.03 0.00 0.00 0.00 0.00 0.03 0.06 0.06 0.06 0.07 0.06 0.04 0.05 0.05 0.07 0.07